| time (UTC) | temp C | wind direction | speed KPH | gust KPH | rain 1hr cm | rain 24hr cm | rain mn cm | humidity % | barometer mb |
| 20260507182040 | 17 | 90 | 6.4 | 6.4 | 0.00 | 0.00 | 0.00 | 92 | 1013.3 |
| 20260507181839 | 17 | 90 | 4.8 | 6.4 | 0.00 | 0.00 | 0.00 | 94 | 1012.9 |
| 20260507181739 | 17 | 90 | 4.8 | 6.4 | 0.00 | 0.00 | 0.00 | 94 | 1013.0 |
| 20260507181640 | 17 | 90 | 4.8 | 4.8 | 0.00 | 0.00 | 0.00 | 93 | 1013.1 |
| 20260507181440 | 17 | 68 | 4.8 | 4.8 | 0.00 | 0.00 | 0.00 | 92 | 1013.1 |
| 20260507181339 | 18 | 90 | 4.8 | 4.8 | 0.00 | 0.00 | 0.00 | 93 | 1013.0 |
| 20260507181239 | 18 | 90 | 4.8 | 4.8 | 0.00 | 0.00 | 0.00 | 93 | 1013.2 |
| 20260507181140 | 18 | 90 | 3.2 | 4.8 | 0.00 | 0.00 | 0.00 | 93 | 1013.2 |
| 20260507181040 | 18 | 90 | 4.8 | 4.8 | 0.00 | 0.00 | 0.00 | 92 | 1013.0 |
| 20260507180939 | 18 | 90 | 4.8 | 4.8 | 0.00 | 0.00 | 0.00 | 93 | 1013.0 |
| 20260507180739 | 18 | 90 | 4.8 | 4.8 | 0.00 | 0.00 | 0.00 | 91 | 1012.9 |
| 20260507180540 | 18 | 90 | 4.8 | 4.8 | 0.00 | 0.00 | 0.00 | 91 | 1013.0 |
| 20260507180339 | 18 | 90 | 4.8 | 6.4 | 0.00 | 0.00 | 0.00 | 90 | 1012.9 |
| 20260507180240 | 18 | 90 | 4.8 | 6.4 | 0.00 | 0.00 | 0.00 | 88 | 1013.1 |
| 20260507175939 | 18 | 90 | 4.8 | 4.8 | 0.00 | 0.00 | 0.00 | 90 | 1012.8 |
| 20260507175740 | 18 | 90 | 6.4 | 6.4 | 0.00 | 0.00 | 0.00 | 89 | 1012.7 |
| 20260507175439 | 18 | 90 | 6.4 | 6.4 | 0.00 | 0.03 | 0.00 | 93 | 1012.9 |
| 20260507175240 | 18 | 90 | 6.4 | 8.0 | 0.00 | 0.08 | 0.00 | 91 | 1012.8 |
| 20260507175140 | 18 | 90 | 6.4 | 8.0 | 0.00 | 0.13 | 0.00 | 91 | 1012.6 |
| 20260507174440 | 18 | 68 | 3.2 | 3.2 | 0.00 | 0.69 | 0.00 | 87 | 1012.6 |
| 20260507174239 | 18 | 68 | 3.2 | 6.4 | 0.00 | 0.89 | 0.00 | 89 | 1012.7 |
| 20260507174140 | 18 | 90 | 3.2 | 3.2 | 0.00 | 0.89 | 0.00 | 89 | 1012.7 |
| 20260507173439 | 20 | 248 | 0.0 | 1.6 | 0.00 | 1.40 | 0.00 | 75 | 1012.6 |
| 20260507173240 | 20 | 270 | 0.0 | 0.0 | 0.00 | 1.50 | 0.00 | 77 | 1012.7 |
| 20260507172939 | 20 | 248 | 0.0 | 1.6 | 0.00 | 1.68 | 0.00 | 75 | 1012.3 |
| 20260507172840 | 20 | 225 | 0.0 | 1.6 | 0.00 | 1.70 | 0.00 | 74 | 1012.6 |
| 20260507172539 | 20 | 270 | 1.6 | 1.6 | 0.00 | 1.70 | 0.00 | 73 | 1012.5 |
| 20260507172240 | 20 | 225 | 1.6 | 3.2 | 0.00 | 1.70 | 0.00 | 73 | 1012.5 |
| 20260507172140 | 20 | 248 | 1.6 | 1.6 | 0.00 | 1.70 | 0.00 | 74 | 1012.6 |
| 20260507172039 | 20 | 270 | 0.0 | 1.6 | 0.00 | 1.70 | 0.00 | 74 | 1012.4 |
| 20260507171939 | 20 | 248 | 1.6 | 1.6 | 0.00 | 1.70 | 0.00 | 72 | 1012.4 |
| 20260507171740 | 20 | 248 | 0.0 | 1.6 | 0.00 | 1.70 | 0.00 | 73 | 1012.5 |
| 20260507171540 | 20 | 270 | 1.6 | 1.6 | 0.00 | 1.70 | 0.00 | 73 | 1012.5 |
| 20260507171440 | 20 | 270 | 1.6 | 3.2 | 0.00 | 1.70 | 0.00 | 73 | 1012.5 |
| 20260507171339 | 20 | 292 | 1.6 | 1.6 | 0.00 | 1.70 | 0.00 | 74 | 1012.5 |
| 20260507171239 | 20 | 248 | 0.0 | 0.0 | 0.00 | 1.70 | 0.00 | 74 | 1012.3 |
| 20260507171140 | 20 | 158 | 0.0 | 1.6 | 0.00 | 1.70 | 0.00 | 73 | 1012.5 |
| 20260507170939 | 20 | 315 | 0.0 | 1.6 | 0.00 | 1.70 | 0.00 | 74 | 1012.4 |
| 20260507170840 | 21 | 315 | 1.6 | 3.2 | 0.00 | 1.70 | 0.00 | 71 | 1012.5 |
| 20260507170740 | 21 | 315 | 1.6 | 3.2 | 0.00 | 1.70 | 0.00 | 71 | 1012.5 |
| 20260507170640 | 21 | 315 | 0.0 | 0.0 | 0.00 | 1.70 | 0.00 | 70 | 1012.3 |
| 20260507170340 | 21 | 315 | 0.0 | 0.0 | 0.00 | 1.70 | 0.00 | 70 | 1012.4 |
| 20260507170240 | 21 | 338 | 0.0 | 1.6 | 0.00 | 1.70 | 0.00 | 70 | 1012.4 |
| 20260507170141 | 21 | 338 | 0.0 | 1.6 | 0.00 | 1.70 | 0.00 | 70 | 1012.5 |
| 20260507170040 | 21 | 338 | 0.0 | 1.6 | 0.00 | 1.70 | 0.00 | 70 | 1012.4 |
| 20260507165640 | 21 | 315 | 1.6 | 1.6 | 0.00 | 1.70 | 0.00 | 72 | 1012.2 |
| 20260507165539 | 21 | 292 | 1.6 | 3.2 | 0.00 | 1.70 | 0.00 | 70 | 1012.4 |
| 20260507165340 | 21 | 248 | 1.6 | 3.2 | 0.00 | 1.70 | 0.00 | 72 | 1012.0 |
| 20260507165139 | 20 | 0 | 0.0 | 1.6 | 0.00 | 1.70 | 0.00 | 73 | 1012.4 |
| 20260507165039 | 20 | 338 | 0.0 | 1.6 | 0.00 | 1.70 | 0.00 | 76 | 1012.3 |
| 20260507164939 | 20 | 22 | 0.0 | 1.6 | 0.00 | 1.70 | 0.00 | 79 | 1012.3 |
| 20260507164740 | 20 | 0 | 0.0 | 1.6 | 0.00 | 1.70 | 0.00 | 74 | 1012.4 |
| 20260507164640 | 21 | 0 | 0.0 | 0.0 | 0.00 | 1.70 | 0.00 | 69 | 1012.3 |
| 20260507164540 | 21 | 0 | 0.0 | 0.0 | 0.00 | 1.70 | 0.00 | 70 | 1012.3 |
| 20260507164240 | 21 | 22 | 0.0 | 1.6 | 0.00 | 1.70 | 0.00 | 70 | 1012.3 |
| 20260507163840 | 21 | 315 | 0.0 | 0.0 | 0.00 | 1.70 | 0.00 | 73 | 1012.1 |
| 20260507163741 | 21 | 315 | 0.0 | 0.0 | 0.00 | 1.70 | 0.00 | 71 | 1012.3 |
| 20260507163440 | 21 | 292 | 0.0 | 0.0 | 0.00 | 1.70 | 0.00 | 74 | 1012.3 |
| 20260507163339 | 21 | 292 | 0.0 | 0.0 | 0.00 | 1.70 | 0.00 | 70 | 1012.2 |
| 20260507163039 | 20 | 22 | 0.0 | 1.6 | 0.00 | 1.70 | 0.00 | 72 | 1012.2 |
| 20260507162939 | 20 | 22 | 0.0 | 1.6 | 0.00 | 1.70 | 0.00 | 71 | 1012.3 |
| 20260507162639 | 20 | 0 | 0.0 | 1.6 | 0.00 | 1.70 | 0.00 | 73 | 1012.4 |
| 20260507162340 | 19 | 0 | 1.6 | 1.6 | 0.00 | 1.70 | 0.00 | 73 | 1012.4 |
| 20260507162240 | 19 | 22 | 1.6 | 1.6 | 0.00 | 1.70 | 0.00 | 72 | 1012.2 |
| 20260507162140 | 19 | 22 | 1.6 | 3.2 | 0.00 | 1.70 | 0.00 | 72 | 1012.2 |
| 20260507162040 | 19 | 22 | 3.2 | 3.2 | 0.00 | 1.70 | 0.00 | 73 | 1012.2 |
| 20260507161939 | 19 | 22 | 3.2 | 3.2 | 0.00 | 1.70 | 0.00 | 73 | 1012.4 |
| 20260507161840 | 19 | 22 | 3.2 | 3.2 | 0.00 | 1.70 | 0.00 | 79 | 1012.3 |
| 20260507161740 | 19 | 45 | 3.2 | 3.2 | 0.00 | 1.70 | 0.00 | 83 | 1012.2 |
| 20260507161640 | 19 | 45 | 1.6 | 3.2 | 0.00 | 1.70 | 0.00 | 80 | 1012.4 |
| 20260507161540 | 19 | 68 | 1.6 | 3.2 | 0.00 | 1.70 | 0.00 | 73 | 1012.4 |
| 20260507161339 | 19 | 45 | 1.6 | 1.6 | 0.00 | 1.70 | 0.00 | 79 | 1012.2 |
| 20260507161239 | 19 | 45 | 1.6 | 3.2 | 0.00 | 1.70 | 0.00 | 75 | 1012.4 |
| 20260507161139 | 19 | 45 | 3.2 | 3.2 | 0.00 | 1.70 | 0.00 | 74 | 1012.3 |
| 20260507161039 | 19 | 45 | 3.2 | 3.2 | 0.00 | 1.70 | 0.00 | 78 | 1012.2 |
| 20260507160839 | 19 | 45 | 3.2 | 3.2 | 0.00 | 1.70 | 0.00 | 80 | 1012.3 |
| 20260507160539 | 19 | 45 | 1.6 | 1.6 | 0.00 | 1.70 | 0.00 | 76 | 1012.3 |
| 20260507160340 | 19 | 45 | 1.6 | 3.2 | 0.00 | 1.70 | 0.00 | 81 | 1012.2 |
| 20260507160240 | 20 | 45 | 0.0 | 1.6 | 0.00 | 1.70 | 0.00 | 82 | 1012.2 |
| 20260507160140 | 20 | 0 | 0.0 | 0.0 | 0.00 | 1.70 | 0.00 | 81 | 1012.2 |
| 20260507160040 | 20 | 90 | 0.0 | 1.6 | 0.00 | 1.70 | 0.00 | 80 | 1012.3 |
| 20260507155739 | 20 | 68 | 1.6 | 1.6 | 0.00 | 1.70 | 0.00 | 78 | 1012.3 |
| 20260507155639 | 20 | 22 | 1.6 | 1.6 | 0.00 | 1.70 | 0.00 | 76 | 1012.1 |
| 20260507155440 | 19 | 45 | 1.6 | 1.6 | 0.00 | 1.70 | 0.00 | 76 | 1012.3 |
| 20260507155340 | 19 | 68 | 1.6 | 3.2 | 0.00 | 1.70 | 0.00 | 77 | 1012.4 |
| 20260507155141 | 19 | 68 | 3.2 | 3.2 | 0.00 | 1.70 | 0.00 | 80 | 1012.3 |
| 20260507154939 | 19 | 45 | 3.2 | 4.8 | 0.00 | 1.70 | 0.00 | 76 | 1012.3 |
| 20260507154640 | 19 | 90 | 1.6 | 1.6 | 0.00 | 1.70 | 0.00 | 79 | 1012.4 |
| 20260507154539 | 19 | 68 | 3.2 | 3.2 | 0.00 | 1.70 | 0.00 | 79 | 1012.4 |
| 20260507154439 | 19 | 45 | 3.2 | 4.8 | 0.00 | 1.70 | 0.00 | 78 | 1012.3 |
| 20260507154040 | 19 | 68 | 3.2 | 3.2 | 0.00 | 1.70 | 0.00 | 74 | 1012.2 |
| 20260507153840 | 19 | 68 | 3.2 | 3.2 | 0.00 | 1.70 | 0.00 | 82 | 1012.4 |
| 20260507153740 | 18 | 68 | 3.2 | 4.8 | 0.00 | 1.70 | 0.00 | 79 | 1012.2 |
| 20260507153640 | 18 | 68 | 3.2 | 3.2 | 0.00 | 1.70 | 0.00 | 86 | 1012.2 |
| 20260507153539 | 18 | 68 | 4.8 | 4.8 | 0.00 | 1.70 | 0.00 | 82 | 1012.2 |
| 20260507153340 | 20 | 68 | 1.6 | 3.2 | 0.00 | 1.70 | 0.00 | 79 | 1012.0 |
| 20260507153040 | 20 | 45 | 1.6 | 3.2 | 0.00 | 1.70 | 0.00 | 81 | 1012.2 |
| 20260507152940 | 19 | 45 | 3.2 | 3.2 | 0.00 | 1.70 | 0.00 | 75 | 1012.4 |
| 20260507152840 | 19 | 68 | 3.2 | 3.2 | 0.00 | 1.70 | 0.00 | 75 | 1012.3 |
| 20260507152740 | 19 | 90 | 3.2 | 3.2 | 0.00 | 1.70 | 0.00 | 77 | 1012.3 |
| 20260507152540 | 19 | 90 | 3.2 | 4.8 | 0.00 | 1.70 | 0.00 | 75 | 1012.1 |
| 20260507152240 | 19 | 68 | 3.2 | 3.2 | 0.00 | 1.70 | 0.00 | 78 | 1012.4 |
| 20260507152140 | 19 | 90 | 1.6 | 3.2 | 0.00 | 1.70 | 0.00 | 82 | 1012.3 |
| 20260507151740 | 19 | 90 | 4.8 | 6.4 | 0.00 | 1.70 | 0.00 | 85 | 1012.5 |
| 20260507151640 | 19 | 90 | 6.4 | 6.4 | 0.00 | 1.70 | 0.00 | 81 | 1012.2 |
| 20260507151540 | 20 | 90 | 4.8 | 6.4 | 0.00 | 1.70 | 0.00 | 76 | 1012.3 |
| 20260507151239 | 21 | 315 | 0.0 | 1.6 | 0.00 | 1.70 | 0.00 | 66 | 1012.3 |
| 20260507151139 | 21 | 292 | 0.0 | 1.6 | 0.00 | 1.70 | 0.00 | 66 | 1012.0 |
| 20260507150940 | 21 | 248 | 3.2 | 4.8 | 0.00 | 1.70 | 0.00 | 67 | 1012.2 |
| 20260507150840 | 21 | 248 | 3.2 | 6.4 | 0.00 | 1.70 | 0.00 | 67 | 1012.2 |
| 20260507150640 | 21 | 270 | 3.2 | 9.7 | 0.00 | 1.70 | 0.00 | 66 | 1012.1 |
| 20260507150439 | 21 | 112 | 0.0 | 1.6 | 0.00 | 1.70 | 0.00 | 67 | 1012.2 |
| 20260507150240 | 22 | 248 | 1.6 | 3.2 | 0.00 | 1.70 | 0.00 | 70 | 1012.3 |
| 20260507150039 | 21 | 248 | 0.0 | 1.6 | 0.00 | 1.70 | 0.00 | 70 | 1012.3 |
| 20260507145939 | 21 | 158 | 0.0 | 1.6 | 0.00 | 1.70 | 0.00 | 69 | 1012.1 |
| 20260507145840 | 21 | 202 | 1.6 | 3.2 | 0.00 | 1.70 | 0.00 | 70 | 1012.3 |
| 20260507145741 | 21 | 270 | 1.6 | 3.2 | 0.00 | 1.70 | 0.00 | 70 | 1012.3 |
| 20260507145640 | 21 | 248 | 3.2 | 3.2 | 0.00 | 1.70 | 0.00 | 70 | 1012.1 |
| 20260507145340 | 21 | 248 | 1.6 | 3.2 | 0.00 | 1.70 | 0.00 | 70 | 1012.1 |
| 20260507145240 | 21 | 248 | 0.0 | 1.6 | 0.00 | 1.70 | 0.00 | 71 | 1012.2 |
| 20260507145139 | 21 | 0 | 0.0 | 1.6 | 0.00 | 1.70 | 0.00 | 70 | 1012.4 |
| 20260507145039 | 21 | 292 | 0.0 | 1.6 | 0.00 | 1.70 | 0.00 | 72 | 1012.4 |
| 20260507144940 | 21 | 248 | 0.0 | 1.6 | 0.00 | 1.70 | 0.00 | 72 | 1012.1 |
| 20260507144839 | 21 | 292 | 0.0 | 0.0 | 0.00 | 1.70 | 0.00 | 70 | 1012.2 |
| 20260507144540 | 20 | 22 | 0.0 | 1.6 | 0.00 | 1.70 | 0.00 | 72 | 1012.3 |
| 20260507144339 | 20 | 338 | 0.0 | 1.6 | 0.00 | 1.70 | 0.00 | 71 | 1012.2 |
| 20260507144040 | 20 | 22 | 1.6 | 1.6 | 0.00 | 1.70 | 0.00 | 69 | 1012.4 |
| 20260507143539 | 20 | 45 | 0.0 | 1.6 | 0.00 | 1.70 | 0.00 | 67 | 1012.5 |
| 20260507143440 | 20 | 315 | 1.6 | 1.6 | 0.00 | 1.70 | 0.00 | 67 | 1012.4 |
| 20260507143039 | 20 | 315 | 1.6 | 1.6 | 0.00 | 1.70 | 0.00 | 71 | 1012.2 |
| 20260507142939 | 20 | 315 | 1.6 | 3.2 | 0.00 | 1.70 | 0.00 | 70 | 1012.3 |
| 20260507142440 | 20 | 338 | 3.2 | 3.2 | 0.00 | 1.70 | 0.00 | 69 | 1012.2 |
| 20260507142240 | 21 | 315 | 3.2 | 3.2 | 0.00 | 1.70 | 0.00 | 70 | 1012.4 |
| 20260507142139 | 21 | 292 | 3.2 | 4.8 | 0.00 | 1.70 | 0.00 | 69 | 1012.3 |
| 20260507141740 | 20 | 292 | 3.2 | 4.8 | 0.00 | 1.70 | 0.00 | 72 | 1012.4 |
| 20260507141439 | 20 | 315 | 1.6 | 4.8 | 0.00 | 1.70 | 0.00 | 73 | 1012.3 |
| 20260507141339 | 20 | 315 | 1.6 | 1.6 | 0.00 | 1.70 | 0.00 | 71 | 1012.4 |
| 20260507141240 | 20 | 315 | 1.6 | 1.6 | 0.00 | 1.70 | 0.00 | 72 | 1012.3 |
| 20260507141040 | 20 | 315 | 3.2 | 3.2 | 0.00 | 1.70 | 0.00 | 71 | 1012.4 |
| 20260507140940 | 20 | 315 | 3.2 | 3.2 | 0.00 | 1.70 | 0.00 | 72 | 1012.3 |
| 20260507140740 | 20 | 315 | 3.2 | 3.2 | 0.00 | 1.70 | 0.00 | 73 | 1012.3 |
| 20260507140640 | 21 | 315 | 1.6 | 1.6 | 0.00 | 1.70 | 0.00 | 73 | 1012.4 |
| 20260507140541 | 21 | 270 | 3.2 | 6.4 | 0.00 | 1.70 | 0.00 | 72 | 1012.4 |
| 20260507140440 | 21 | 248 | 3.2 | 3.2 | 0.00 | 1.70 | 0.00 | 72 | 1012.4 |
| 20260507140139 | 21 | 292 | 3.2 | 6.4 | 0.00 | 1.70 | 0.00 | 74 | 1012.5 |
| 20260507135939 | 21 | 270 | 3.2 | 6.4 | 0.00 | 1.70 | 0.00 | 73 | 1012.4 |
| 20260507135040 | 20 | 292 | 3.2 | 3.2 | 0.00 | 1.70 | 0.00 | 74 | 1012.6 |
| 20260507134940 | 20 | 315 | 3.2 | 3.2 | 0.00 | 1.70 | 0.00 | 73 | 1012.6 |
| 20260507134840 | 20 | 315 | 3.2 | 3.2 | 0.00 | 1.70 | 0.00 | 74 | 1012.7 |
| 20260507134439 | 20 | 315 | 1.6 | 3.2 | 0.00 | 1.70 | 0.00 | 74 | 1012.5 |
| 20260507134140 | 20 | 315 | 3.2 | 3.2 | 0.00 | 1.70 | 0.00 | 74 | 1012.6 |
| 20260507133940 | 20 | 315 | 3.2 | 3.2 | 0.00 | 1.70 | 0.00 | 74 | 1012.8 |
| 20260507133640 | 20 | 270 | 4.8 | 6.4 | 0.00 | 1.70 | 0.00 | 75 | 1012.5 |
| 20260507133339 | 20 | 338 | 3.2 | 3.2 | 0.00 | 1.70 | 0.00 | 74 | 1012.7 |
| 20260507133239 | 20 | 338 | 1.6 | 3.2 | 0.00 | 1.70 | 0.00 | 74 | 1012.7 |
| 20260507133040 | 19 | 315 | 3.2 | 3.2 | 0.00 | 1.70 | 0.00 | 75 | 1012.7 |
| 20260507132940 | 19 | 338 | 1.6 | 3.2 | 0.00 | 1.70 | 0.00 | 74 | 1012.7 |
| 20260507132740 | 20 | 315 | 3.2 | 3.2 | 0.00 | 1.70 | 0.00 | 74 | 1012.8 |
| 20260507132640 | 20 | 315 | 3.2 | 4.8 | 0.00 | 1.70 | 0.00 | 74 | 1012.6 |
| 20260507132540 | 20 | 338 | 4.8 | 4.8 | 0.00 | 1.70 | 0.00 | 73 | 1012.6 |
| 20260507132339 | 20 | 315 | 6.4 | 6.4 | 0.00 | 1.70 | 0.00 | 73 | 1012.8 |
| 20260507132239 | 20 | 292 | 4.8 | 6.4 | 0.00 | 1.70 | 0.00 | 77 | 1012.8 |
| 20260507132139 | 20 | 315 | 3.2 | 3.2 | 0.00 | 1.70 | 0.00 | 78 | 1012.7 |
| 20260507131940 | 20 | 270 | 4.8 | 6.4 | 0.00 | 1.70 | 0.00 | 76 | 1012.8 |
| 20260507131640 | 21 | 270 | 3.2 | 4.8 | 0.00 | 1.70 | 0.00 | 73 | 1012.7 |
| 20260507131539 | 21 | 270 | 1.6 | 1.6 | 0.00 | 1.70 | 0.00 | 75 | 1012.7 |
| 20260507131240 | 20 | 270 | 1.6 | 3.2 | 0.00 | 1.70 | 0.00 | 73 | 1012.7 |
| 20260507130740 | 20 | 248 | 3.2 | 3.2 | 0.00 | 1.70 | 0.00 | 71 | 1012.8 |
| 20260507130540 | 20 | 270 | 6.4 | 8.0 | 0.00 | 1.70 | 0.00 | 72 | 1012.8 |
| 20260507130440 | 20 | 225 | 6.4 | 9.7 | 0.00 | 1.70 | 0.00 | 74 | 1012.8 |
| 20260507130140 | 20 | 270 | 1.6 | 3.2 | 0.00 | 1.70 | 0.00 | 79 | 1012.8 |
| 20260507125939 | 20 | 292 | 1.6 | 4.8 | 0.00 | 1.70 | 0.00 | 75 | 1012.6 |
| 20260507125839 | 20 | 315 | 3.2 | 3.2 | 0.00 | 1.70 | 0.00 | 84 | 1012.8 |
| 20260507125739 | 20 | 315 | 3.2 | 3.2 | 0.00 | 1.70 | 0.00 | 81 | 1012.7 |
| 20260507125540 | 20 | 270 | 3.2 | 3.2 | 0.00 | 1.70 | 0.00 | 82 | 1012.7 |
| 20260507125439 | 20 | 270 | 4.8 | 6.4 | 0.00 | 1.70 | 0.00 | 81 | 1012.9 |
| 20260507125239 | 20 | 338 | 1.6 | 3.2 | 0.00 | 1.70 | 0.00 | 83 | 1012.8 |
| 20260507125040 | 19 | 315 | 3.2 | 3.2 | 0.00 | 1.70 | 0.00 | 80 | 1012.8 |
| 20260507124940 | 19 | 315 | 3.2 | 3.2 | 0.00 | 1.70 | 0.00 | 78 | 1012.9 |
| 20260507124539 | 20 | 292 | 3.2 | 6.4 | 0.00 | 1.70 | 0.00 | 78 | 1012.9 |
| 20260507124240 | 20 | 315 | 3.2 | 4.8 | 0.00 | 1.70 | 0.00 | 78 | 1013.1 |
| 20260507124140 | 20 | 315 | 4.8 | 6.4 | 0.00 | 1.70 | 0.00 | 78 | 1012.9 |
| 20260507124040 | 20 | 248 | 4.8 | 8.0 | 0.00 | 1.70 | 0.00 | 77 | 1012.9 |
| 20260507123940 | 20 | 248 | 11.3 | 11.3 | 0.00 | 1.70 | 0.00 | 81 | 1012.9 |
| 20260507123841 | 20 | 315 | 1.6 | 3.2 | 0.00 | 1.70 | 0.00 | 80 | 1013.0 |
| 20260507123640 | 20 | 292 | 0.0 | 1.6 | 0.00 | 1.70 | 0.00 | 80 | 1013.0 |
| 20260507123140 | 18 | 292 | 4.8 | 6.4 | 0.00 | 1.70 | 0.00 | 86 | 1013.0 |
| 20260507122840 | 18 | 315 | 3.2 | 3.2 | 0.00 | 1.70 | 0.00 | 83 | 1013.2 |
| 20260507122739 | 19 | 338 | 3.2 | 4.8 | 0.00 | 1.70 | 0.00 | 82 | 1013.3 |
| 20260507122639 | 19 | 315 | 3.2 | 3.2 | 0.00 | 1.70 | 0.00 | 82 | 1013.1 |
| 20260507122040 | 19 | 315 | 1.6 | 3.2 | 0.00 | 1.70 | 0.00 | 83 | 1013.1 |
| 20260507121839 | 19 | 315 | 3.2 | 4.8 | 0.00 | 1.70 | 0.00 | 80 | 1013.0 |
| 20260507121640 | 20 | 270 | 3.2 | 4.8 | 0.00 | 1.70 | 0.00 | 79 | 1013.2 |
| 20260507121541 | 20 | 270 | 3.2 | 4.8 | 0.00 | 1.70 | 0.00 | 79 | 1013.0 |
| 20260507121439 | 20 | 292 | 3.2 | 3.2 | 0.00 | 1.70 | 0.00 | 84 | 1012.9 |
| 20260507121340 | 19 | 270 | 4.8 | 6.4 | 0.00 | 1.70 | 0.00 | 81 | 1013.1 |
| 20260507121240 | 19 | 292 | 3.2 | 4.8 | 0.00 | 1.70 | 0.00 | 80 | 1013.1 |
| 20260507120439 | 19 | 315 | 3.2 | 3.2 | 0.00 | 1.70 | 0.00 | 81 | 1013.2 |
| 20260507120041 | 20 | 270 | 4.8 | 8.0 | 0.00 | 1.70 | 0.00 | 80 | 1013.2 |
| 20260507115940 | 19 | 248 | 3.2 | 4.8 | 0.00 | 1.70 | 0.00 | 83 | 1013.0 |
| 20260507115840 | 19 | 292 | 3.2 | 3.2 | 0.00 | 1.70 | 0.00 | 79 | 1013.1 |
| 20260507115740 | 19 | 292 | 3.2 | 3.2 | 0.00 | 1.70 | 0.00 | 80 | 1013.3 |
| 20260507115539 | 18 | 292 | 3.2 | 4.8 | 0.00 | 1.70 | 0.00 | 82 | 1013.3 |
| 20260507115439 | 18 | 315 | 6.4 | 8.0 | 0.00 | 1.70 | 0.00 | 81 | 1013.3 |
| 20260507115340 | 18 | 315 | 4.8 | 8.0 | 0.00 | 1.70 | 0.00 | 80 | 1013.3 |
| 20260507115140 | 18 | 315 | 4.8 | 6.4 | 0.00 | 1.70 | 0.00 | 81 | 1013.5 |
| 20260507115039 | 18 | 315 | 4.8 | 6.4 | 0.00 | 1.70 | 0.00 | 79 | 1013.1 |
| 20260507114940 | 18 | 315 | 3.2 | 6.4 | 0.00 | 1.70 | 0.00 | 80 | 1013.5 |
| 20260507114840 | 18 | 292 | 3.2 | 4.8 | 0.00 | 1.70 | 0.00 | 83 | 1013.2 |
| 20260507114739 | 18 | 315 | 3.2 | 4.8 | 0.00 | 1.70 | 0.00 | 83 | 1013.0 |
| 20260507114640 | 18 | 270 | 3.2 | 3.2 | 0.00 | 1.70 | 0.00 | 83 | 1013.3 |
| 20260507114539 | 18 | 315 | 3.2 | 3.2 | 0.00 | 1.70 | 0.00 | 80 | 1013.3 |
| 20260507114439 | 18 | 270 | 1.6 | 3.2 | 0.00 | 1.70 | 0.00 | 85 | 1013.2 |
| 20260507114040 | 18 | 270 | 3.2 | 4.8 | 0.00 | 1.70 | 0.00 | 83 | 1013.3 |
| 20260507113940 | 18 | 270 | 4.8 | 6.4 | 0.00 | 1.70 | 0.00 | 83 | 1013.2 |
| 20260507113840 | 18 | 315 | 3.2 | 6.4 | 0.00 | 1.70 | 0.00 | 81 | 1013.5 |
| 20260507113740 | 18 | 270 | 3.2 | 4.8 | 0.00 | 1.70 | 0.00 | 82 | 1013.3 |
| 20260507113640 | 18 | 292 | 1.6 | 3.2 | 0.00 | 1.70 | 0.00 | 84 | 1013.3 |
| 20260507113540 | 18 | 90 | 1.6 | 3.2 | 0.00 | 1.70 | 0.00 | 89 | 1013.2 |
| 20260507113439 | 18 | 315 | 1.6 | 3.2 | 0.00 | 1.70 | 0.00 | 84 | 1013.2 |
| 20260507113140 | 18 | 315 | 1.6 | 3.2 | 0.00 | 1.70 | 0.00 | 83 | 1013.3 |
| 20260507113040 | 18 | 315 | 3.2 | 3.2 | 0.00 | 1.70 | 0.00 | 83 | 1013.5 |
| 20260507112740 | 18 | 292 | 0.0 | 1.6 | 0.00 | 1.70 | 0.00 | 83 | 1013.3 |
| 20260507112640 | 18 | 315 | 1.6 | 4.8 | 0.00 | 1.70 | 0.00 | 83 | 1013.2 |
| 20260507112339 | 18 | 292 | 1.6 | 3.2 | 0.00 | 1.70 | 0.00 | 85 | 1013.6 |
| 20260507112239 | 18 | 315 | 3.2 | 3.2 | 0.00 | 1.70 | 0.00 | 86 | 1013.5 |
| 20260507112139 | 18 | 315 | 3.2 | 4.8 | 0.00 | 1.70 | 0.00 | 84 | 1013.3 |
| 20260507111940 | 18 | 338 | 3.2 | 3.2 | 0.00 | 1.70 | 0.00 | 83 | 1013.6 |
| 20260507111839 | 18 | 315 | 3.2 | 4.8 | 0.00 | 1.70 | 0.00 | 84 | 1013.7 |
| 20260507111739 | 18 | 292 | 4.8 | 6.4 | 0.00 | 1.70 | 0.00 | 82 | 1013.6 |
| 20260507111639 | 18 | 292 | 3.2 | 6.4 | 0.00 | 1.70 | 0.00 | 82 | 1013.6 |
| 20260507111540 | 18 | 315 | 3.2 | 3.2 | 0.00 | 1.70 | 0.00 | 83 | 1013.6 |
| 20260507111439 | 18 | 292 | 1.6 | 3.2 | 0.00 | 1.70 | 0.00 | 84 | 1013.6 |
| 20260507111140 | 18 | 248 | 6.4 | 9.7 | 0.00 | 1.70 | 0.00 | 83 | 1013.6 |
| 20260507110739 | 18 | 270 | 3.2 | 4.8 | 0.00 | 1.70 | 0.00 | 81 | 1013.5 |
| 20260507110540 | 18 | 315 | 4.8 | 6.4 | 0.00 | 1.70 | 0.00 | 83 | 1013.6 |
| 20260507110440 | 18 | 270 | 3.2 | 6.4 | 0.00 | 1.70 | 0.00 | 82 | 1013.6 |
| 20260507110339 | 18 | 248 | 4.8 | 6.4 | 0.00 | 1.70 | 0.00 | 82 | 1013.6 |
| 20260507110239 | 19 | 270 | 1.6 | 3.2 | 0.00 | 1.70 | 0.00 | 84 | 1013.6 |
| 20260507110140 | 18 | 270 | 1.6 | 3.2 | 0.00 | 1.70 | 0.00 | 82 | 1013.6 |
| 20260507110040 | 18 | 270 | 3.2 | 3.2 | 0.00 | 1.70 | 0.00 | 80 | 1013.7 |
| 20260507105840 | 18 | 270 | 3.2 | 3.2 | 0.00 | 1.70 | 0.00 | 80 | 1013.8 |
| 20260507105640 | 18 | 270 | 4.8 | 6.4 | 0.00 | 1.70 | 0.00 | 81 | 1013.8 |
| 20260507105439 | 18 | 270 | 6.4 | 9.7 | 0.00 | 1.70 | 0.00 | 81 | 1013.5 |
| 20260507105239 | 18 | 292 | 4.8 | 6.4 | 0.00 | 1.70 | 0.00 | 82 | 1013.7 |
| 20260507105139 | 18 | 270 | 6.4 | 9.7 | 0.00 | 1.70 | 0.00 | 82 | 1013.6 |
| 20260507104939 | 18 | 270 | 3.2 | 6.4 | 0.00 | 1.70 | 0.00 | 86 | 1013.7 |
| 20260507104840 | 18 | 292 | 3.2 | 3.2 | 0.00 | 1.70 | 0.00 | 85 | 1013.8 |
| 20260507104440 | 17 | 292 | 4.8 | 6.4 | 0.00 | 1.70 | 0.00 | 81 | 1013.8 |
| 20260507104340 | 17 | 292 | 3.2 | 4.8 | 0.00 | 1.70 | 0.00 | 84 | 1013.7 |
| 20260507103839 | 18 | 292 | 4.8 | 6.4 | 0.00 | 1.73 | 0.00 | 85 | 1013.6 |
| 20260507103739 | 18 | 315 | 3.2 | 6.4 | 0.00 | 1.78 | 0.00 | 85 | 1013.7 |
| 20260507103540 | 18 | 270 | 6.4 | 8.0 | 0.00 | 1.78 | 0.00 | 81 | 1013.8 |
| 20260507103440 | 18 | 292 | 3.2 | 4.8 | 0.00 | 1.78 | 0.00 | 82 | 1013.7 |
| 20260507103140 | 18 | 248 | 4.8 | 8.0 | 0.00 | 1.83 | 0.00 | 82 | 1014.0 |
| 20260507103040 | 18 | 292 | 3.2 | 6.4 | 0.00 | 1.85 | 0.00 | 85 | 1013.7 |
| 20260507102939 | 18 | 292 | 4.8 | 6.4 | 0.00 | 1.85 | 0.00 | 83 | 1013.9 |
| 20260507102844 | 17 | 292 | 6.4 | 8.0 | 0.00 | 1.85 | 0.00 | 84 | 1014.0 |
| 20260507102640 | 17 | 270 | 3.2 | 3.2 | 0.00 | 1.85 | 0.00 | 87 | 1013.8 |
| 20260507102540 | 17 | 292 | 3.2 | 6.4 | 0.00 | 1.85 | 0.00 | 87 | 1014.0 |
| 20260507102040 | 17 | 292 | 4.8 | 6.4 | 0.00 | 1.85 | 0.00 | 89 | 1014.0 |
| 20260507101940 | 17 | 315 | 3.2 | 4.8 | 0.00 | 1.85 | 0.00 | 88 | 1014.0 |
| 20260507101740 | 17 | 315 | 3.2 | 4.8 | 0.00 | 1.85 | 0.00 | 89 | 1014.1 |
| 20260507101640 | 17 | 315 | 4.8 | 6.4 | 0.00 | 1.85 | 0.00 | 89 | 1014.1 |
| 20260507101539 | 17 | 292 | 6.4 | 6.4 | 0.00 | 1.85 | 0.00 | 88 | 1013.8 |
| 20260507101339 | 17 | 315 | 3.2 | 4.8 | 0.00 | 1.85 | 0.00 | 88 | 1014.0 |
| 20260507101239 | 17 | 315 | 3.2 | 3.2 | 0.00 | 1.85 | 0.00 | 87 | 1014.1 |
| 20260507100940 | 17 | 22 | 1.6 | 1.6 | 0.00 | 1.85 | 0.00 | 85 | 1013.9 |
| 20260507100839 | 17 | 0 | 1.6 | 1.6 | 0.00 | 1.85 | 0.00 | 86 | 1014.0 |
| 20260507100739 | 17 | 315 | 1.6 | 1.6 | 0.00 | 1.85 | 0.00 | 86 | 1014.0 |
| 20260507100640 | 17 | 338 | 1.6 | 3.2 | 0.00 | 1.85 | 0.00 | 85 | 1014.0 |
| 20260507100540 | 17 | 315 | 3.2 | 3.2 | 0.00 | 1.85 | 0.00 | 84 | 1014.2 |
| 20260507100441 | 17 | 292 | 3.2 | 3.2 | 0.00 | 1.85 | 0.00 | 85 | 1014.2 |
| 20260507100340 | 17 | 315 | 3.2 | 3.2 | 0.00 | 1.85 | 0.00 | 87 | 1014.0 |
| 20260507095940 | 17 | 315 | 3.2 | 3.2 | 0.00 | 1.85 | 0.00 | 85 | 1014.0 |
| 20260507095440 | 17 | 248 | 1.6 | 4.8 | 0.00 | 1.85 | 0.00 | 86 | 1014.1 |
| 20260507095240 | 16 | 315 | 1.6 | 3.2 | 0.00 | 1.85 | 0.00 | 86 | 1014.1 |
| 20260507095139 | 16 | 315 | 3.2 | 3.2 | 0.00 | 1.88 | 0.00 | 87 | 1014.3 |
| 20260507094839 | 16 | 315 | 1.6 | 1.6 | 0.00 | 1.88 | 0.00 | 89 | 1014.3 |
| 20260507094740 | 16 | 45 | 1.6 | 1.6 | 0.00 | 1.88 | 0.00 | 89 | 1014.3 |
| 20260507094640 | 16 | 45 | 3.2 | 3.2 | 0.00 | 1.88 | 0.00 | 90 | 1014.2 |
| 20260507094540 | 16 | 45 | 1.6 | 3.2 | 0.00 | 1.88 | 0.00 | 92 | 1014.2 |
| 20260507094339 | 16 | 45 | 1.6 | 3.2 | 0.00 | 1.88 | 0.00 | 90 | 1014.1 |
| 20260507094240 | 16 | 45 | 1.6 | 3.2 | 0.00 | 1.91 | 0.00 | 91 | 1014.1 |
| 20260507093640 | 16 | 45 | 3.2 | 4.8 | 0.00 | 1.93 | 0.00 | 91 | 1014.3 |
| 20260507093440 | 16 | 68 | 3.2 | 3.2 | 0.00 | 1.93 | 0.00 | 90 | 1014.3 |
| 20260507093239 | 16 | 68 | 3.2 | 4.8 | 0.00 | 1.93 | 0.00 | 90 | 1014.2 |
| 20260507092940 | 16 | 68 | 3.2 | 4.8 | 0.00 | 1.93 | 0.00 | 90 | 1014.2 |
| 20260507092840 | 15 | 90 | 3.2 | 4.8 | 0.00 | 1.93 | 0.00 | 90 | 1014.5 |
| 20260507092739 | 16 | 68 | 3.2 | 4.8 | 0.00 | 1.93 | 0.00 | 90 | 1014.1 |
| 20260507092639 | 15 | 90 | 3.2 | 4.8 | 0.00 | 1.93 | 0.00 | 89 | 1014.4 |
| 20260507092440 | 15 | 90 | 3.2 | 4.8 | 0.00 | 1.93 | 0.00 | 88 | 1014.3 |
| 20260507092340 | 15 | 68 | 3.2 | 4.8 | 0.00 | 1.93 | 0.00 | 88 | 1014.3 |
| 20260507092239 | 15 | 68 | 3.2 | 4.8 | 0.00 | 1.93 | 0.00 | 90 | 1014.4 |
| 20260507092139 | 15 | 90 | 3.2 | 4.8 | 0.00 | 1.93 | 0.00 | 89 | 1014.3 |
| 20260507091640 | 15 | 68 | 4.8 | 6.4 | 0.00 | 1.93 | 0.00 | 90 | 1014.1 |
| 20260507091440 | 15 | 90 | 4.8 | 6.4 | 0.00 | 1.93 | 0.00 | 90 | 1014.3 |
| 20260507091139 | 15 | 90 | 4.8 | 4.8 | 0.00 | 1.93 | 0.00 | 90 | 1014.3 |
| 20260507091040 | 15 | 68 | 4.8 | 4.8 | 0.00 | 1.93 | 0.00 | 90 | 1014.3 |
| 20260507090939 | 15 | 90 | 4.8 | 6.4 | 0.00 | 1.93 | 0.00 | 89 | 1014.4 |
| 20260507090740 | 15 | 68 | 4.8 | 4.8 | 0.00 | 1.93 | 0.00 | 91 | 1014.4 |
| 20260507090440 | 15 | 90 | 4.8 | 4.8 | 0.00 | 1.93 | 0.00 | 89 | 1014.3 |
| 20260507090339 | 15 | 68 | 4.8 | 4.8 | 0.00 | 1.93 | 0.00 | 91 | 1014.4 |
| 20260507090239 | 15 | 68 | 3.2 | 4.8 | 0.00 | 1.93 | 0.00 | 91 | 1014.3 |
| 20260507090040 | 15 | 90 | 3.2 | 4.8 | 0.00 | 1.93 | 0.00 | 91 | 1014.6 |
| 20260507085740 | 15 | 68 | 3.2 | 4.8 | 0.00 | 1.93 | 0.00 | 93 | 1014.5 |
| 20260507085640 | 15 | 68 | 4.8 | 4.8 | 0.00 | 1.93 | 0.00 | 91 | 1014.4 |
| 20260507085540 | 15 | 68 | 4.8 | 4.8 | 0.00 | 1.93 | 0.00 | 91 | 1014.4 |
| 20260507085240 | 15 | 68 | 6.4 | 6.4 | 0.00 | 1.93 | 0.00 | 92 | 1014.2 |
| 20260507085040 | 15 | 68 | 4.8 | 6.4 | 0.00 | 1.93 | 0.00 | 93 | 1014.4 |
| 20260507084939 | 15 | 68 | 4.8 | 6.4 | 0.00 | 1.93 | 0.00 | 92 | 1014.4 |
| 20260507084839 | 15 | 68 | 4.8 | 6.4 | 0.00 | 1.93 | 0.00 | 93 | 1014.2 |
| 20260507084740 | 15 | 68 | 4.8 | 6.4 | 0.00 | 1.93 | 0.00 | 91 | 1014.5 |
| 20260507084640 | 15 | 68 | 4.8 | 6.4 | 0.00 | 1.93 | 0.00 | 91 | 1014.3 |
| 20260507084540 | 15 | 68 | 4.8 | 6.4 | 0.00 | 1.93 | 0.00 | 89 | 1014.4 |
| 20260507084440 | 15 | 68 | 4.8 | 4.8 | 0.00 | 1.93 | 0.00 | 91 | 1014.2 |
| 20260507084339 | 15 | 68 | 4.8 | 4.8 | 0.00 | 1.93 | 0.00 | 90 | 1014.3 |
| 20260507084140 | 15 | 68 | 4.8 | 6.4 | 0.00 | 1.93 | 0.00 | 93 | 1014.4 |
| 20260507084040 | 15 | 90 | 4.8 | 6.4 | 0.00 | 1.93 | 0.00 | 94 | 1014.3 |
| 20260507083940 | 15 | 68 | 6.4 | 6.4 | 0.00 | 1.93 | 0.00 | 91 | 1014.4 |
| 20260507083839 | 15 | 68 | 6.4 | 6.4 | 0.00 | 1.93 | 0.00 | 89 | 1014.4 |
| 20260507083739 | 15 | 68 | 6.4 | 6.4 | 0.00 | 1.93 | 0.00 | 90 | 1014.5 |
| 20260507083640 | 15 | 68 | 6.4 | 6.4 | 0.00 | 1.93 | 0.00 | 90 | 1014.5 |
| 20260507083439 | 15 | 68 | 6.4 | 6.4 | 0.00 | 1.93 | 0.00 | 92 | 1014.4 |
| 20260507083140 | 15 | 68 | 6.4 | 6.4 | 0.00 | 1.93 | 0.00 | 92 | 1014.4 |
| 20260507083040 | 15 | 68 | 6.4 | 6.4 | 0.00 | 1.93 | 0.00 | 92 | 1014.4 |
| 20260507082940 | 15 | 68 | 6.4 | 6.4 | 0.00 | 1.93 | 0.00 | 91 | 1014.3 |
| 20260507082640 | 15 | 68 | 6.4 | 6.4 | 0.00 | 1.93 | 0.00 | 92 | 1014.5 |
| 20260507082439 | 15 | 90 | 6.4 | 6.4 | 0.00 | 1.93 | 0.00 | 93 | 1014.3 |
| 20260507082140 | 15 | 68 | 6.4 | 6.4 | 0.00 | 1.93 | 0.00 | 93 | 1014.4 |
| 20260507081840 | 15 | 68 | 6.4 | 9.7 | 0.00 | 1.96 | 0.00 | 93 | 1014.4 |
| 20260507081739 | 15 | 68 | 8.0 | 9.7 | 0.00 | 1.96 | 0.00 | 92 | 1014.4 |
| 20260507081439 | 15 | 90 | 6.4 | 8.0 | 0.00 | 1.96 | 0.00 | 91 | 1014.1 |
| 20260507081040 | 15 | 90 | 6.4 | 6.4 | 0.00 | 1.96 | 0.00 | 92 | 1014.3 |
| 20260507080940 | 15 | 90 | 6.4 | 8.0 | 0.00 | 1.96 | 0.00 | 92 | 1014.1 |
| 20260507080440 | 15 | 90 | 6.4 | 8.0 | 0.00 | 1.96 | 0.00 | 91 | 1014.3 |
| 20260507080239 | 14 | 90 | 8.0 | 9.7 | 0.00 | 1.96 | 0.00 | 92 | 1014.2 |
| 20260507080139 | 14 | 90 | 6.4 | 8.0 | 0.00 | 1.96 | 0.00 | 94 | 1014.2 |
| 20260507075339 | 15 | 68 | 8.0 | 9.7 | 0.00 | 1.96 | 0.00 | 94 | 1014.4 |
| 20260507075140 | 15 | 90 | 6.4 | 9.7 | 0.00 | 1.96 | 0.00 | 94 | 1014.3 |
| 20260507075040 | 15 | 68 | 6.4 | 9.7 | 0.00 | 1.96 | 0.00 | 93 | 1014.2 |
| 20260507074939 | 15 | 90 | 8.0 | 9.7 | 0.00 | 1.96 | 0.00 | 93 | 1014.1 |
| 20260507074839 | 14 | 90 | 9.7 | 9.7 | 0.00 | 1.96 | 0.00 | 91 | 1014.1 |
| 20260507074639 | 14 | 90 | 8.0 | 9.7 | 0.00 | 1.96 | 0.00 | 92 | 1014.1 |
| 20260507074539 | 14 | 68 | 9.7 | 9.7 | 0.00 | 1.96 | 0.00 | 93 | 1014.1 |
| 20260507073940 | 15 | 90 | 6.4 | 6.4 | 0.00 | 1.96 | 0.00 | 94 | 1014.2 |
| 20260507073839 | 14 | 90 | 6.4 | 6.4 | 0.00 | 1.96 | 0.00 | 93 | 1014.1 |
| 20260507073640 | 14 | 90 | 8.0 | 11.3 | 0.00 | 2.01 | 0.00 | 94 | 1014.1 |
| 20260507073540 | 14 | 90 | 6.4 | 6.4 | 0.00 | 2.01 | 0.00 | 95 | 1014.1 |
| 20260507073440 | 14 | 90 | 6.4 | 8.0 | 0.00 | 2.01 | 0.00 | 94 | 1014.1 |
| 20260507073339 | 14 | 90 | 8.0 | 9.7 | 0.00 | 2.03 | 0.00 | 95 | 1014.2 |
| 20260507073239 | 14 | 90 | 8.0 | 9.7 | 0.00 | 2.03 | 0.00 | 94 | 1014.3 |
| 20260507072639 | 14 | 90 | 9.7 | 11.3 | 0.00 | 2.03 | 0.00 | 95 | 1014.3 |
| 20260507072539 | 14 | 68 | 9.7 | 11.3 | 0.00 | 2.03 | 0.00 | 94 | 1014.1 |
| 20260507072439 | 14 | 90 | 8.0 | 9.7 | 0.00 | 2.03 | 0.00 | 95 | 1014.2 |
| 20260507072339 | 14 | 90 | 8.0 | 9.7 | 0.00 | 2.03 | 0.00 | 94 | 1014.3 |
| 20260507072140 | 14 | 68 | 9.7 | 11.3 | 0.00 | 2.03 | 0.00 | 95 | 1014.1 |
| 20260507071939 | 14 | 90 | 9.7 | 9.7 | 0.00 | 2.03 | 0.00 | 95 | 1014.2 |
| 20260507071839 | 14 | 68 | 11.3 | 11.3 | 0.00 | 2.03 | 0.00 | 94 | 1014.3 |
| 20260507071640 | 14 | 68 | 11.3 | 11.3 | 0.00 | 2.03 | 0.00 | 94 | 1014.1 |
| 20260507071440 | 14 | 68 | 11.3 | 12.9 | 0.00 | 2.06 | 0.00 | 95 | 1014.1 |
| 20260507070939 | 14 | 90 | 11.3 | 14.5 | 0.00 | 2.06 | 0.00 | 94 | 1013.9 |
| 20260507070540 | 14 | 90 | 9.7 | 12.9 | 0.00 | 2.06 | 0.00 | 96 | 1013.8 |
| 20260507070240 | 13 | 90 | 11.3 | 14.5 | 0.00 | 2.06 | 0.00 | 95 | 1013.9 |
| 20260507070140 | 13 | 90 | 11.3 | 14.5 | 0.00 | 2.08 | 0.00 | 95 | 1013.8 |
| 20260507065839 | 13 | 90 | 12.9 | 14.5 | 0.00 | 2.08 | 0.00 | 95 | 1014.0 |
| 20260507065739 | 13 | 90 | 12.9 | 14.5 | 0.00 | 2.08 | 0.00 | 95 | 1014.1 |
| 20260507065539 | 13 | 90 | 11.3 | 12.9 | 0.00 | 2.08 | 0.00 | 96 | 1014.0 |
| 20260507064740 | 13 | 112 | 11.3 | 11.3 | 0.00 | 2.08 | 0.00 | 95 | 1013.8 |
| 20260507064640 | 13 | 90 | 11.3 | 12.9 | 0.00 | 2.08 | 0.00 | 95 | 1014.0 |
| 20260507064239 | 13 | 90 | 9.7 | 14.5 | 0.00 | 2.08 | 0.00 | 95 | 1013.9 |
| 20260507064140 | 13 | 68 | 11.3 | 14.5 | 0.00 | 2.08 | 0.00 | 94 | 1014.0 |
| 20260507064040 | 13 | 90 | 11.3 | 14.5 | 0.00 | 2.08 | 0.00 | 96 | 1013.9 |
| 20260507063940 | 13 | 90 | 11.3 | 12.9 | 0.00 | 2.08 | 0.00 | 95 | 1013.9 |
| 20260507063740 | 13 | 112 | 14.5 | 16.1 | 0.00 | 2.08 | 0.00 | 95 | 1013.8 |
| 20260507063339 | 13 | 90 | 12.9 | 14.5 | 0.00 | 2.08 | 0.00 | 96 | 1013.8 |
| 20260507063140 | 13 | 90 | 12.9 | 16.1 | 0.00 | 2.08 | 0.00 | 96 | 1013.7 |
| 20260507062540 | 13 | 68 | 12.9 | 14.5 | 0.00 | 2.11 | 0.00 | 96 | 1013.6 |
| 20260507062340 | 13 | 68 | 14.5 | 17.7 | 0.00 | 2.11 | 0.00 | 96 | 1013.7 |
| 20260507062039 | 13 | 90 | 12.9 | 16.1 | 0.00 | 2.11 | 0.00 | 96 | 1013.6 |
| 20260507061740 | 13 | 90 | 12.9 | 17.7 | 0.00 | 2.11 | 0.00 | 96 | 1013.9 |
| 20260507061640 | 13 | 90 | 11.3 | 14.5 | 0.00 | 2.11 | 0.00 | 97 | 1013.7 |
| 20260507061540 | 13 | 68 | 11.3 | 14.5 | 0.00 | 2.11 | 0.00 | 96 | 1013.8 |
| 20260507061439 | 13 | 90 | 12.9 | 17.7 | 0.00 | 2.11 | 0.00 | 96 | 1013.8 |
| 20260507061339 | 13 | 90 | 11.3 | 11.3 | 0.00 | 2.11 | 0.00 | 97 | 1013.6 |
| 20260507060740 | 13 | 90 | 12.9 | 14.5 | 0.00 | 2.11 | 0.00 | 96 | 1013.7 |
| 20260507060639 | 13 | 90 | 12.9 | 14.5 | 0.00 | 2.11 | 0.00 | 96 | 1013.9 |
| 20260507060540 | 13 | 90 | 11.3 | 14.5 | 0.00 | 2.11 | 0.00 | 96 | 1013.7 |
| 20260507060440 | 13 | 90 | 11.3 | 11.3 | 0.00 | 2.11 | 0.00 | 96 | 1013.6 |
| 20260507060340 | 13 | 68 | 12.9 | 14.5 | 0.00 | 2.11 | 0.00 | 96 | 1013.8 |
| 20260507060139 | 13 | 90 | 11.3 | 14.5 | 0.00 | 2.11 | 0.00 | 96 | 1013.7 |
| 20260507055640 | 13 | 90 | 11.3 | 12.9 | 0.00 | 2.11 | 0.00 | 96 | 1013.6 |
| 20260507055340 | 13 | 68 | 11.3 | 12.9 | 0.00 | 2.11 | 0.00 | 96 | 1013.9 |
| 20260507055040 | 13 | 90 | 11.3 | 14.5 | 0.00 | 2.16 | 0.00 | 96 | 1013.8 |
| 20260507054640 | 13 | 90 | 9.7 | 11.3 | 0.00 | 2.21 | 0.00 | 96 | 1013.6 |
| 20260507054440 | 13 | 90 | 11.3 | 14.5 | 0.00 | 2.24 | 0.00 | 96 | 1013.6 |
| 20260507054340 | 13 | 90 | 11.3 | 16.1 | 0.00 | 2.26 | 0.00 | 96 | 1013.5 |
| 20260507054140 | 13 | 90 | 11.3 | 11.3 | 0.00 | 2.26 | 0.00 | 96 | 1013.6 |
| 20260507053940 | 13 | 90 | 16.1 | 19.3 | 0.00 | 2.26 | 0.00 | 96 | 1013.7 |
| 20260507053740 | 13 | 90 | 11.3 | 14.5 | 0.00 | 2.26 | 0.00 | 96 | 1013.3 |
| 20260507053639 | 13 | 90 | 11.3 | 14.5 | 0.00 | 2.29 | 0.00 | 96 | 1013.5 |
| 20260507053539 | 13 | 90 | 14.5 | 17.7 | 0.00 | 2.29 | 0.00 | 96 | 1013.5 |
| 20260507053240 | 13 | 90 | 12.9 | 16.1 | 0.00 | 2.36 | 0.00 | 96 | 1013.3 |
| 20260507052939 | 13 | 112 | 11.3 | 16.1 | 0.00 | 2.39 | 0.00 | 97 | 1013.3 |
| 20260507052839 | 13 | 112 | 14.5 | 16.1 | 0.00 | 2.39 | 0.00 | 97 | 1013.3 |
| 20260507052639 | 13 | 68 | 14.5 | 17.7 | 0.00 | 2.39 | 0.00 | 96 | 1013.5 |
| 20260507052540 | 13 | 90 | 12.9 | 14.5 | 0.00 | 2.39 | 0.00 | 97 | 1013.1 |
| 20260507052440 | 13 | 90 | 11.3 | 12.9 | 0.00 | 2.39 | 0.00 | 97 | 1013.2 |
| 20260507052240 | 13 | 90 | 11.3 | 14.5 | 0.00 | 2.39 | 0.00 | 97 | 1013.2 |
| 20260507051739 | 13 | 90 | 11.3 | 16.1 | 0.00 | 2.39 | 0.00 | 96 | 1012.9 |
| 20260507051640 | 13 | 90 | 11.3 | 14.5 | 0.00 | 2.41 | 0.00 | 96 | 1013.0 |
| 20260507051140 | 13 | 90 | 14.5 | 17.7 | 0.00 | 2.44 | 0.00 | 97 | 1013.0 |
| 20260507051039 | 13 | 90 | 11.3 | 14.5 | 0.00 | 2.44 | 0.00 | 96 | 1013.1 |
| 20260507050840 | 13 | 90 | 14.5 | 17.7 | 0.00 | 2.44 | 0.00 | 96 | 1013.0 |
| 20260507050540 | 13 | 90 | 12.9 | 17.7 | 0.00 | 2.44 | 0.00 | 97 | 1013.1 |
| 20260507050440 | 13 | 112 | 11.3 | 12.9 | 0.00 | 2.44 | 0.00 | 96 | 1012.9 |
| 20260507050240 | 13 | 90 | 12.9 | 16.1 | 0.00 | 2.44 | 0.00 | 96 | 1013.0 |
| 20260507050139 | 13 | 90 | 11.3 | 14.5 | 0.00 | 2.44 | 0.00 | 97 | 1012.8 |
| 20260507050039 | 13 | 112 | 11.3 | 14.5 | 0.00 | 2.44 | 0.00 | 97 | 1013.1 |
| 20260507045740 | 13 | 90 | 11.3 | 14.5 | 0.00 | 2.44 | 0.00 | 96 | 1012.9 |
| 20260507045639 | 13 | 90 | 11.3 | 16.1 | 0.00 | 2.44 | 0.00 | 96 | 1013.0 |
| 20260507045449 | 13 | 90 | 12.9 | 16.1 | 0.00 | 2.44 | 0.00 | 97 | 1013.0 |
| 20260507045339 | 13 | 112 | 12.9 | 14.5 | 0.00 | 2.49 | 0.00 | 97 | 1012.7 |
| 20260507044739 | 13 | 90 | 14.5 | 16.1 | 0.00 | 2.54 | 0.00 | 97 | 1012.8 |
| 20260507044540 | 13 | 112 | 12.9 | 14.5 | 0.00 | 2.54 | 0.00 | 97 | 1013.0 |
| 20260507044340 | 13 | 90 | 9.7 | 11.3 | 0.00 | 2.57 | 0.00 | 97 | 1012.9 |
| 20260507043939 | 13 | 90 | 14.5 | 17.7 | 0.00 | 2.59 | 0.00 | 97 | 1012.9 |
| 20260507043840 | 13 | 90 | 12.9 | 14.5 | 0.00 | 2.59 | 0.00 | 97 | 1012.7 |
| 20260507043540 | 13 | 90 | 12.9 | 14.5 | 0.00 | 2.59 | 0.00 | 97 | 1012.8 |
| 20260507043340 | 13 | 90 | 11.3 | 14.5 | 0.00 | 2.59 | 0.00 | 96 | 1012.8 |
| 20260507042040 | 13 | 90 | 11.3 | 12.9 | 0.00 | 2.62 | 0.00 | 97 | 1012.6 |
| 20260507041740 | 13 | 90 | 11.3 | 14.5 | 0.00 | 2.67 | 0.00 | 97 | 1012.6 |
| 20260507041539 | 13 | 90 | 12.9 | 14.5 | 0.00 | 2.67 | 0.00 | 97 | 1012.7 |
| 20260507041439 | 13 | 90 | 12.9 | 16.1 | 0.00 | 2.67 | 0.00 | 97 | 1012.7 |
| 20260507040940 | 13 | 90 | 14.5 | 17.7 | 0.00 | 2.69 | 0.00 | 97 | 1012.7 |
| 20260507040839 | 13 | 112 | 11.3 | 12.9 | 0.00 | 2.69 | 0.00 | 97 | 1012.6 |
| 20260507040740 | 13 | 112 | 11.3 | 12.9 | 0.00 | 2.69 | 0.00 | 97 | 1012.7 |
| 20260507040540 | 13 | 90 | 14.5 | 17.7 | 0.00 | 2.69 | 0.00 | 97 | 1012.7 |
| 20260507040140 | 13 | 90 | 14.5 | 17.7 | 0.00 | 2.72 | 0.00 | 97 | 1012.5 |
| 20260507035939 | 13 | 90 | 11.3 | 14.5 | 0.00 | 2.72 | 0.00 | 98 | 1012.6 |
| 20260507035839 | 13 | 90 | 14.5 | 14.5 | 0.00 | 2.72 | 0.00 | 98 | 1012.6 |
| 20260507035641 | 13 | 90 | 14.5 | 16.1 | 0.00 | 2.72 | 0.00 | 97 | 1012.5 |
| 20260507035539 | 13 | 90 | 14.5 | 16.1 | 0.00 | 2.72 | 0.00 | 97 | 1012.7 |
| 20260507035439 | 13 | 90 | 14.5 | 16.1 | 0.00 | 2.72 | 0.00 | 97 | 1012.6 |
| 20260507035340 | 13 | 90 | 12.9 | 16.1 | 0.00 | 2.72 | 0.00 | 97 | 1012.5 |
| 20260507035240 | 13 | 90 | 12.9 | 14.5 | 0.00 | 2.72 | 0.00 | 98 | 1012.7 |
| 20260507035140 | 13 | 68 | 14.5 | 17.7 | 0.00 | 2.72 | 0.00 | 97 | 1012.5 |
| 20260507034740 | 13 | 90 | 11.3 | 12.9 | 0.00 | 2.72 | 0.00 | 98 | 1012.8 |
| 20260507034539 | 13 | 90 | 11.3 | 14.5 | 0.00 | 2.72 | 0.00 | 98 | 1012.3 |
| 20260507034040 | 13 | 90 | 12.9 | 14.5 | 0.00 | 2.72 | 0.00 | 98 | 1012.4 |
| 20260507033840 | 13 | 90 | 12.9 | 16.1 | 0.00 | 2.72 | 0.00 | 98 | 1012.7 |
| 20260507033439 | 13 | 90 | 12.9 | 14.5 | 0.00 | 2.72 | 0.00 | 98 | 1012.6 |
| 20260507032839 | 13 | 90 | 12.9 | 14.5 | 0.00 | 2.72 | 0.00 | 97 | 1012.6 |
| 20260507032740 | 13 | 90 | 11.3 | 14.5 | 0.00 | 2.72 | 0.00 | 97 | 1012.7 |
| 20260507032639 | 13 | 90 | 14.5 | 16.1 | 0.00 | 2.72 | 0.00 | 97 | 1012.7 |
| 20260507032539 | 13 | 90 | 12.9 | 14.5 | 0.00 | 2.72 | 0.00 | 98 | 1012.8 |
| 20260507032240 | 13 | 90 | 12.9 | 14.5 | 0.00 | 2.72 | 0.00 | 98 | 1012.8 |
| 20260507032040 | 13 | 90 | 12.9 | 14.5 | 0.00 | 2.72 | 0.00 | 98 | 1012.7 |
| 20260507031940 | 13 | 68 | 12.9 | 16.1 | 0.00 | 2.72 | 0.00 | 97 | 1012.9 |
| 20260507031740 | 13 | 90 | 12.9 | 16.1 | 0.00 | 2.72 | 0.00 | 97 | 1012.6 |
| 20260507031639 | 13 | 68 | 14.5 | 16.1 | 0.00 | 2.72 | 0.00 | 97 | 1012.7 |
| 20260507031339 | 13 | 90 | 14.5 | 16.1 | 0.00 | 2.72 | 0.00 | 97 | 1012.6 |
| 20260507030940 | 13 | 68 | 11.3 | 12.9 | 0.00 | 2.72 | 0.00 | 98 | 1012.8 |
| 20260507030839 | 13 | 90 | 14.5 | 17.7 | 0.00 | 2.72 | 0.00 | 97 | 1012.6 |
| 20260507030739 | 13 | 90 | 11.3 | 11.3 | 0.00 | 2.72 | 0.00 | 98 | 1012.7 |
| 20260507030440 | 13 | 90 | 11.3 | 16.1 | 0.00 | 2.72 | 0.00 | 97 | 1012.9 |
| 20260507030239 | 13 | 68 | 11.3 | 12.9 | 0.00 | 2.72 | 0.00 | 97 | 1012.6 |
| 20260507025539 | 13 | 90 | 11.3 | 12.9 | 0.00 | 2.72 | 0.00 | 97 | 1012.6 |
| 20260507025440 | 13 | 90 | 11.3 | 11.3 | 0.00 | 2.72 | 0.00 | 97 | 1012.7 |
| 20260507025239 | 13 | 90 | 11.3 | 12.9 | 0.00 | 2.72 | 0.00 | 97 | 1012.8 |
| 20260507025139 | 13 | 90 | 11.3 | 14.5 | 0.00 | 2.72 | 0.00 | 97 | 1012.7 |
| 20260507024939 | 13 | 90 | 11.3 | 14.5 | 0.00 | 2.72 | 0.00 | 97 | 1012.8 |
| 20260507024740 | 13 | 90 | 11.3 | 12.9 | 0.00 | 2.72 | 0.00 | 97 | 1012.5 |
| 20260507024640 | 13 | 90 | 9.7 | 11.3 | 0.00 | 2.72 | 0.00 | 98 | 1012.5 |
| 20260507024539 | 13 | 68 | 11.3 | 11.3 | 0.00 | 2.72 | 0.00 | 97 | 1012.6 |
| 20260507023840 | 13 | 90 | 11.3 | 11.3 | 0.00 | 2.72 | 0.00 | 98 | 1012.7 |
| 20260507023339 | 13 | 90 | 9.7 | 11.3 | 0.00 | 2.72 | 0.00 | 99 | 1012.4 |
| 20260507023240 | 13 | 90 | 8.0 | 9.7 | 0.00 | 2.72 | 0.00 | 98 | 1012.5 |
| 20260507023140 | 13 | 90 | 8.0 | 9.7 | 0.00 | 2.72 | 0.00 | 98 | 1012.5 |
| 20260507022640 | 13 | 90 | 8.0 | 9.7 | 0.00 | 2.72 | 0.00 | 98 | 1012.6 |
| 20260507022239 | 12 | 90 | 8.0 | 9.7 | 0.00 | 2.72 | 0.00 | 99 | 1012.5 |
| 20260507022139 | 13 | 90 | 8.0 | 9.7 | 0.00 | 2.72 | 0.00 | 98 | 1012.5 |
| 20260507021939 | 12 | 90 | 6.4 | 8.0 | 0.00 | 2.72 | 0.00 | 98 | 1012.6 |
| 20260507021740 | 12 | 90 | 8.0 | 9.7 | 0.00 | 2.72 | 0.00 | 98 | 1012.4 |
| 20260507021540 | 12 | 90 | 6.4 | 9.7 | 0.00 | 2.72 | 0.00 | 99 | 1012.5 |
| 20260507021440 | 12 | 90 | 6.4 | 9.7 | 0.00 | 2.72 | 0.00 | 98 | 1012.4 |
| 20260507021140 | 13 | 90 | 9.7 | 11.3 | 0.00 | 2.72 | 0.00 | 99 | 1012.4 |
| 20260507020940 | 12 | 90 | 9.7 | 11.3 | 0.00 | 2.72 | 0.00 | 99 | 1012.7 |
| 20260507020639 | 13 | 112 | 11.3 | 12.9 | 0.00 | 2.72 | 0.00 | 98 | 1012.4 |
| 20260507020539 | 13 | 112 | 11.3 | 12.9 | 0.00 | 2.72 | 0.00 | 98 | 1012.5 |
| 20260507020440 | 13 | 68 | 9.7 | 11.3 | 0.00 | 2.72 | 0.00 | 97 | 1012.5 |
| 20260507020340 | 13 | 90 | 11.3 | 12.9 | 0.00 | 2.72 | 0.00 | 97 | 1012.6 |
| 20260507020240 | 13 | 90 | 11.3 | 12.9 | 0.00 | 2.72 | 0.00 | 98 | 1012.4 |
| 20260507020140 | 13 | 90 | 11.3 | 12.9 | 0.00 | 2.72 | 0.00 | 98 | 1012.2 |
| 20260507020039 | 13 | 90 | 11.3 | 14.5 | 0.00 | 2.72 | 0.00 | 97 | 1012.1 |
| 20260507015939 | 13 | 90 | 11.3 | 12.9 | 0.00 | 2.72 | 0.00 | 98 | 1012.2 |
| 20260507015840 | 13 | 90 | 12.9 | 14.5 | 0.00 | 2.72 | 0.00 | 97 | 1012.3 |
| 20260507015741 | 13 | 68 | 11.3 | 14.5 | 0.00 | 2.72 | 0.00 | 98 | 1012.3 |
| 20260507015640 | 13 | 90 | 12.9 | 14.5 | 0.00 | 2.72 | 0.00 | 97 | 1012.3 |
| 20260507015540 | 13 | 90 | 11.3 | 14.5 | 0.00 | 2.72 | 0.00 | 98 | 1012.3 |
| 20260507015340 | 13 | 112 | 14.5 | 16.1 | 0.00 | 2.72 | 0.00 | 98 | 1012.3 |
| 20260507015240 | 13 | 90 | 14.5 | 17.7 | 0.00 | 2.72 | 0.00 | 98 | 1012.2 |
| 20260507014939 | 13 | 90 | 14.5 | 19.3 | 0.00 | 2.72 | 0.00 | 97 | 1012.0 |
| 20260507014640 | 13 | 90 | 12.9 | 14.5 | 0.00 | 2.72 | 0.00 | 98 | 1012.0 |
| 20260507014339 | 13 | 90 | 12.9 | 14.5 | 0.00 | 2.72 | 0.00 | 98 | 1012.3 |
| 20260507014239 | 13 | 90 | 12.9 | 14.5 | 0.00 | 2.72 | 0.00 | 98 | 1012.2 |
| 20260507013839 | 13 | 90 | 14.5 | 16.1 | 0.00 | 2.72 | 0.00 | 98 | 1012.0 |
| 20260507013539 | 13 | 90 | 14.5 | 17.7 | 0.00 | 2.72 | 0.00 | 98 | 1012.0 |
| 20260507013340 | 13 | 90 | 12.9 | 14.5 | 0.00 | 2.72 | 0.00 | 99 | 1012.2 |
| 20260507012639 | 13 | 90 | 12.9 | 17.7 | 0.00 | 2.72 | 0.00 | 98 | 1012.1 |
| 20260507012440 | 13 | 90 | 11.3 | 14.5 | 0.00 | 2.72 | 0.00 | 98 | 1012.2 |
| 20260507012340 | 13 | 90 | 11.3 | 11.3 | 0.00 | 2.72 | 0.00 | 98 | 1012.1 |
| 20260507012240 | 13 | 90 | 12.9 | 14.5 | 0.00 | 2.72 | 0.00 | 98 | 1012.1 |
| 20260507012039 | 13 | 90 | 14.5 | 17.7 | 0.00 | 2.72 | 0.00 | 98 | 1012.1 |
| 20260507011939 | 13 | 68 | 12.9 | 14.5 | 0.00 | 2.72 | 0.00 | 98 | 1012.2 |
| 20260507011740 | 13 | 68 | 12.9 | 14.5 | 0.00 | 2.72 | 0.00 | 97 | 1011.9 |
| 20260507011439 | 13 | 90 | 12.9 | 14.5 | 0.00 | 2.72 | 0.00 | 98 | 1012.1 |
| 20260507011339 | 13 | 90 | 14.5 | 17.7 | 0.00 | 2.72 | 0.00 | 97 | 1012.0 |
| 20260507011039 | 13 | 90 | 14.5 | 16.1 | 0.00 | 2.72 | 0.00 | 98 | 1012.1 |
| 20260507010839 | 13 | 90 | 11.3 | 11.3 | 0.00 | 2.72 | 0.00 | 98 | 1012.1 |
| 20260507010739 | 13 | 90 | 9.7 | 12.9 | 0.00 | 2.72 | 0.00 | 98 | 1012.1 |
| 20260507010539 | 13 | 90 | 11.3 | 14.5 | 0.00 | 2.72 | 0.00 | 98 | 1012.0 |
| 20260507010240 | 13 | 90 | 12.9 | 14.5 | 0.00 | 2.72 | 0.00 | 98 | 1012.1 |
| 20260507010139 | 13 | 90 | 11.3 | 14.5 | 0.00 | 2.72 | 0.00 | 98 | 1012.2 |
| 20260507010039 | 13 | 112 | 11.3 | 14.5 | 0.00 | 2.72 | 0.00 | 97 | 1012.1 |
| 20260507005539 | 13 | 90 | 12.9 | 14.5 | 0.00 | 2.72 | 0.00 | 97 | 1012.2 |
| 20260507005240 | 13 | 112 | 14.5 | 16.1 | 0.00 | 2.72 | 0.00 | 96 | 1012.3 |
| 20260507004640 | 13 | 135 | 14.5 | 16.1 | 0.00 | 2.72 | 0.00 | 97 | 1012.1 |
| 20260507004540 | 13 | 90 | 14.5 | 17.7 | 0.00 | 2.72 | 0.00 | 97 | 1012.2 |
| 20260507004139 | 13 | 90 | 12.9 | 14.5 | 0.00 | 2.72 | 0.00 | 97 | 1012.0 |
| 20260507004040 | 13 | 112 | 11.3 | 14.5 | 0.00 | 2.72 | 0.00 | 97 | 1012.4 |
| 20260507003940 | 13 | 135 | 11.3 | 16.1 | 0.00 | 2.72 | 0.00 | 97 | 1012.3 |
| 20260507003340 | 13 | 90 | 11.3 | 17.7 | 0.00 | 2.72 | 0.00 | 98 | 1012.4 |
| 20260507003040 | 13 | 90 | 14.5 | 17.7 | 0.00 | 2.72 | 0.00 | 97 | 1012.1 |
| 20260507002939 | 13 | 90 | 14.5 | 17.7 | 0.00 | 2.72 | 0.00 | 97 | 1012.3 |
| 20260507002540 | 13 | 112 | 14.5 | 17.7 | 0.00 | 2.72 | 0.00 | 97 | 1012.1 |
| 20260507002440 | 13 | 90 | 14.5 | 19.3 | 0.00 | 2.72 | 0.00 | 98 | 1012.2 |
| 20260507002340 | 13 | 90 | 12.9 | 14.5 | 0.00 | 2.72 | 0.00 | 98 | 1012.1 |
| 20260507002039 | 13 | 112 | 14.5 | 19.3 | 0.00 | 2.72 | 0.00 | 97 | 1012.3 |
| 20260507001840 | 13 | 90 | 14.5 | 17.7 | 0.00 | 2.72 | 0.00 | 97 | 1012.0 |
| 20260507001740 | 13 | 112 | 14.5 | 17.7 | 0.00 | 2.72 | 0.00 | 98 | 1012.2 |
| 20260507001640 | 13 | 90 | 14.5 | 17.7 | 0.00 | 2.72 | 0.00 | 98 | 1012.2 |
| 20260507001239 | 13 | 90 | 14.5 | 16.1 | 0.00 | 2.72 | 0.00 | 98 | 1012.2 |
| 20260507001139 | 13 | 90 | 17.7 | 22.5 | 0.00 | 2.72 | 0.00 | 97 | 1012.3 |
| 20260507000939 | 13 | 90 | 17.7 | 20.9 | 0.00 | 2.72 | 0.00 | 97 | 1012.0 |
| 20260507000840 | 13 | 90 | 16.1 | 19.3 | 0.00 | 2.72 | 0.00 | 97 | 1012.3 |
| 20260507000640 | 13 | 90 | 16.1 | 19.3 | 0.00 | 2.72 | 0.00 | 98 | 1012.0 |
| 20260507000539 | 13 | 90 | 16.1 | 19.3 | 0.00 | 2.72 | 0.00 | 98 | 1012.2 |
| 20260507000442 | 13 | 90 | 16.1 | 19.3 | 0.00 | 2.72 | 0.00 | 98 | 1012.0 |
| 20260507000340 | 13 | 90 | 16.1 | 19.3 | 0.00 | 2.72 | 0.00 | 98 | 1012.0 |
| 20260507000140 | 13 | 90 | 16.1 | 19.3 | 0.00 | 2.72 | 0.00 | 98 | 1012.1 |
| 20260506235940 | 13 | 90 | 16.1 | 19.3 | 0.00 | 2.72 | 0.00 | 98 | 1012.0 |
| 20260506235839 | 13 | 112 | 14.5 | 17.7 | 0.00 | 2.72 | 0.00 | 98 | 1011.9 |
| 20260506235739 | 13 | 90 | 16.1 | 19.3 | 0.00 | 2.72 | 0.00 | 98 | 1012.0 |
| 20260506235639 | 13 | 90 | 16.1 | 19.3 | 0.00 | 2.72 | 0.00 | 98 | 1012.0 |
| 20260506235539 | 13 | 90 | 16.1 | 17.7 | 0.00 | 2.72 | 0.00 | 98 | 1012.1 |
| 20260506235340 | 13 | 68 | 17.7 | 20.9 | 0.00 | 2.72 | 0.00 | 97 | 1012.1 |
| 20260506235239 | 13 | 90 | 14.5 | 19.3 | 0.00 | 2.72 | 0.00 | 98 | 1011.9 |
| 20260506235139 | 13 | 90 | 16.1 | 19.3 | 0.00 | 2.72 | 0.00 | 98 | 1012.0 |
| 20260506235039 | 13 | 90 | 14.5 | 16.1 | 0.00 | 2.72 | 0.00 | 97 | 1011.9 |
| 20260506234840 | 13 | 90 | 17.7 | 19.3 | 0.00 | 2.72 | 0.00 | 97 | 1012.1 |
| 20260506234740 | 13 | 90 | 14.5 | 16.1 | 0.00 | 2.72 | 0.00 | 97 | 1012.0 |
| 20260506234640 | 13 | 90 | 16.1 | 19.3 | 0.00 | 2.72 | 0.00 | 98 | 1012.0 |
| 20260506234440 | 13 | 90 | 14.5 | 16.1 | 0.00 | 2.72 | 0.00 | 97 | 1012.0 |
| 20260506234239 | 13 | 90 | 14.5 | 17.7 | 0.00 | 2.72 | 0.00 | 98 | 1011.9 |
| 20260506234040 | 13 | 90 | 14.5 | 16.1 | 0.00 | 2.72 | 0.00 | 97 | 1011.9 |
| 20260506233939 | 13 | 90 | 14.5 | 17.7 | 0.00 | 2.72 | 0.00 | 98 | 1011.8 |
| 20260506233740 | 13 | 90 | 14.5 | 16.1 | 0.00 | 2.72 | 0.00 | 98 | 1011.9 |
| 20260506233240 | 13 | 90 | 12.9 | 14.5 | 0.00 | 2.72 | 0.00 | 98 | 1012.0 |
| 20260506232940 | 13 | 90 | 16.1 | 17.7 | 0.00 | 2.72 | 0.00 | 98 | 1011.9 |
| 20260506232739 | 13 | 90 | 12.9 | 17.7 | 0.00 | 2.72 | 0.00 | 98 | 1011.9 |
| 20260506232539 | 13 | 90 | 14.5 | 16.1 | 0.00 | 2.72 | 0.00 | 97 | 1012.0 |
| 20260506232340 | 13 | 112 | 12.9 | 14.5 | 0.00 | 2.72 | 0.00 | 98 | 1012.2 |
| 20260506232239 | 13 | 112 | 14.5 | 16.1 | 0.00 | 2.72 | 0.00 | 97 | 1012.2 |
| 20260506231940 | 13 | 90 | 14.5 | 17.7 | 0.00 | 2.72 | 0.00 | 96 | 1012.2 |
| 20260506231740 | 13 | 90 | 14.5 | 17.7 | 0.00 | 2.72 | 0.00 | 97 | 1011.9 |
| 20260506231340 | 13 | 90 | 14.5 | 19.3 | 0.00 | 2.72 | 0.00 | 98 | 1012.0 |
| 20260506231239 | 13 | 90 | 14.5 | 17.7 | 0.00 | 2.72 | 0.00 | 97 | 1012.1 |
| 20260506231139 | 13 | 90 | 14.5 | 14.5 | 0.00 | 2.72 | 0.00 | 98 | 1012.2 |
| 20260506230740 | 13 | 90 | 16.1 | 22.5 | 0.00 | 2.72 | 0.00 | 97 | 1012.1 |
| 20260506230539 | 13 | 90 | 14.5 | 19.3 | 0.00 | 2.72 | 0.00 | 98 | 1011.9 |
| 20260506230439 | 13 | 112 | 12.9 | 17.7 | 0.00 | 2.72 | 0.00 | 97 | 1011.9 |
| 20260506230140 | 13 | 90 | 16.1 | 17.7 | 0.00 | 2.72 | 0.00 | 97 | 1011.9 |
| 20260506225939 | 13 | 90 | 14.5 | 17.7 | 0.00 | 2.72 | 0.00 | 98 | 1012.0 |
| 20260506225739 | 13 | 112 | 14.5 | 19.3 | 0.00 | 2.72 | 0.00 | 97 | 1011.9 |
| 20260506225544 | 13 | 112 | 14.5 | 16.1 | 0.00 | 2.72 | 0.00 | 97 | 1011.9 |
| 20260506225240 | 13 | 112 | 14.5 | 19.3 | 0.00 | 2.72 | 0.00 | 97 | 1012.2 |
| 20260506225039 | 13 | 90 | 14.5 | 19.3 | 0.00 | 2.72 | 0.00 | 96 | 1012.0 |
| 20260506224840 | 13 | 90 | 14.5 | 19.3 | 0.00 | 2.72 | 0.00 | 97 | 1012.2 |
| 20260506224539 | 13 | 90 | 14.5 | 17.7 | 0.00 | 2.72 | 0.00 | 98 | 1012.2 |
| 20260506224340 | 13 | 90 | 12.9 | 16.1 | 0.00 | 2.72 | 0.00 | 98 | 1012.1 |
| 20260506223740 | 13 | 90 | 11.3 | 14.5 | 0.00 | 2.72 | 0.00 | 98 | 1011.8 |
| 20260506223340 | 13 | 90 | 14.5 | 17.7 | 0.00 | 2.72 | 0.00 | 97 | 1011.9 |
| 20260506223140 | 13 | 90 | 14.5 | 17.7 | 0.00 | 2.72 | 0.00 | 97 | 1012.0 |
| 20260506223040 | 13 | 112 | 14.5 | 16.1 | 0.00 | 2.72 | 0.00 | 97 | 1012.0 |
| 20260506222939 | 13 | 90 | 14.5 | 14.5 | 0.00 | 2.74 | 0.00 | 97 | 1011.8 |
| 20260506222840 | 13 | 90 | 14.5 | 17.7 | 0.00 | 2.74 | 0.00 | 98 | 1012.1 |
| 20260506222639 | 13 | 90 | 12.9 | 14.5 | 0.00 | 2.74 | 0.00 | 97 | 1012.2 |
| 20260506222239 | 13 | 90 | 16.1 | 17.7 | 0.00 | 2.74 | 0.00 | 97 | 1012.2 |
| 20260506222139 | 13 | 90 | 14.5 | 17.7 | 0.00 | 2.74 | 0.00 | 98 | 1012.1 |
| 20260506221840 | 14 | 90 | 16.1 | 17.7 | 0.00 | 2.74 | 0.00 | 96 | 1012.0 |
| 20260506221740 | 14 | 90 | 16.1 | 17.7 | 0.00 | 2.74 | 0.00 | 96 | 1012.2 |
| 20260506221640 | 14 | 90 | 14.5 | 17.7 | 0.00 | 2.74 | 0.00 | 96 | 1012.1 |
| 20260506221539 | 14 | 68 | 16.1 | 17.7 | 0.00 | 2.74 | 0.00 | 95 | 1012.3 |
| 20260506221440 | 14 | 90 | 16.1 | 19.3 | 0.00 | 2.74 | 0.00 | 96 | 1012.2 |
| 20260506221239 | 14 | 68 | 16.1 | 19.3 | 0.00 | 2.74 | 0.00 | 96 | 1012.0 |
| 20260506221140 | 14 | 68 | 16.1 | 19.3 | 0.00 | 2.74 | 0.00 | 96 | 1012.0 |
| 20260506220940 | 14 | 68 | 17.7 | 19.3 | 0.00 | 2.74 | 0.00 | 96 | 1012.2 |
| 20260506220639 | 13 | 90 | 17.7 | 19.3 | 0.00 | 2.74 | 0.00 | 97 | 1012.1 |
| 20260506220439 | 13 | 90 | 17.7 | 19.3 | 0.00 | 2.74 | 0.00 | 96 | 1012.2 |
| 20260506220240 | 13 | 112 | 14.5 | 17.7 | 0.00 | 2.74 | 0.00 | 97 | 1012.1 |
| 20260506215939 | 13 | 90 | 17.7 | 22.5 | 0.00 | 2.74 | 2.74 | 97 | 1011.9 |
| 20260506215440 | 13 | 90 | 16.1 | 17.7 | 0.00 | 2.74 | 2.74 | 97 | 1012.1 |
| 20260506214839 | 13 | 90 | 16.1 | 19.3 | 0.00 | 2.74 | 2.74 | 96 | 1012.1 |
| 20260506214739 | 13 | 90 | 16.1 | 19.3 | 0.00 | 2.74 | 2.74 | 96 | 1012.1 |
| 20260506214640 | 13 | 90 | 17.7 | 22.5 | 0.00 | 2.74 | 2.74 | 95 | 1012.0 |
| 20260506214539 | 13 | 90 | 17.7 | 22.5 | 0.00 | 2.74 | 2.74 | 95 | 1012.1 |
| 20260506214439 | 13 | 112 | 17.7 | 22.5 | 0.00 | 2.74 | 2.74 | 96 | 1012.1 |
| 20260506214240 | 13 | 68 | 17.7 | 19.3 | 0.00 | 2.74 | 2.74 | 96 | 1012.0 |
| 20260506214039 | 13 | 90 | 17.7 | 22.5 | 0.00 | 2.74 | 2.74 | 97 | 1012.1 |
| 20260506213940 | 13 | 90 | 16.1 | 19.3 | 0.00 | 2.74 | 2.74 | 97 | 1011.9 |
| 20260506213840 | 13 | 90 | 16.1 | 19.3 | 0.00 | 2.74 | 2.74 | 97 | 1012.2 |
| 20260506213740 | 13 | 90 | 16.1 | 19.3 | 0.00 | 2.74 | 2.74 | 96 | 1012.0 |
| 20260506213640 | 13 | 90 | 16.1 | 17.7 | 0.00 | 2.74 | 2.74 | 97 | 1012.0 |
| 20260506213239 | 13 | 90 | 17.7 | 19.3 | 0.00 | 2.77 | 2.74 | 97 | 1012.1 |
| 20260506213140 | 13 | 90 | 16.1 | 19.3 | 0.00 | 2.77 | 2.74 | 97 | 1011.9 |
| 20260506212840 | 13 | 90 | 16.1 | 17.7 | 0.00 | 2.77 | 2.74 | 97 | 1012.0 |
| 20260506212740 | 13 | 90 | 14.5 | 17.7 | 0.00 | 2.77 | 2.74 | 98 | 1012.1 |
| 20260506212640 | 13 | 90 | 16.1 | 17.7 | 0.00 | 2.77 | 2.74 | 97 | 1012.0 |
| 20260506212239 | 13 | 90 | 16.1 | 19.3 | 0.00 | 2.77 | 2.74 | 97 | 1012.0 |
| 20260506212140 | 13 | 90 | 14.5 | 16.1 | 0.00 | 2.82 | 2.74 | 97 | 1011.9 |
| 20260506212040 | 13 | 90 | 12.9 | 16.1 | 0.00 | 2.82 | 2.74 | 98 | 1012.0 |
| 20260506211940 | 13 | 90 | 14.5 | 19.3 | 0.00 | 2.82 | 2.74 | 98 | 1012.0 |
| 20260506211839 | 13 | 90 | 14.5 | 14.5 | 0.00 | 2.82 | 2.74 | 99 | 1012.0 |
| 20260506211739 | 13 | 68 | 14.5 | 17.7 | 0.00 | 2.84 | 2.74 | 98 | 1012.2 |
| 20260506211640 | 13 | 90 | 14.5 | 17.7 | 0.00 | 2.84 | 2.74 | 98 | 1012.0 |
| 20260506211441 | 13 | 68 | 14.5 | 19.3 | 0.00 | 2.90 | 2.74 | 98 | 1012.1 |
| 20260506211340 | 13 | 90 | 14.5 | 16.1 | 0.00 | 2.92 | 2.74 | 98 | 1011.9 |
| 20260506211240 | 13 | 90 | 16.1 | 19.3 | 0.00 | 2.92 | 2.74 | 97 | 1012.0 |
| 20260506210739 | 14 | 90 | 14.5 | 17.7 | 0.00 | 2.92 | 2.74 | 98 | 1012.0 |
| 20260506210440 | 13 | 90 | 12.9 | 16.1 | 0.00 | 2.92 | 2.74 | 97 | 1012.0 |
| 20260506210340 | 13 | 90 | 14.5 | 19.3 | 0.00 | 2.92 | 2.74 | 97 | 1011.9 |
| 20260506210239 | 13 | 90 | 14.5 | 17.7 | 0.00 | 2.92 | 2.74 | 97 | 1011.7 |
| 20260506210139 | 13 | 90 | 14.5 | 17.7 | 0.00 | 2.92 | 2.74 | 97 | 1012.0 |
| 20260506210040 | 13 | 90 | 14.5 | 17.7 | 0.00 | 2.92 | 2.74 | 97 | 1011.9 |
| 20260506205940 | 13 | 112 | 16.1 | 20.9 | 0.00 | 2.92 | 2.74 | 97 | 1011.7 |
| 20260506205640 | 14 | 90 | 17.7 | 19.3 | 0.00 | 2.92 | 2.74 | 97 | 1011.9 |
| 20260506205440 | 14 | 90 | 16.1 | 19.3 | 0.00 | 2.95 | 2.74 | 97 | 1011.9 |
| 20260506205340 | 14 | 90 | 16.1 | 17.7 | 0.00 | 2.95 | 2.74 | 98 | 1011.8 |
| 20260506205239 | 14 | 90 | 16.1 | 19.3 | 0.00 | 2.95 | 2.74 | 98 | 1012.0 |
| 20260506204940 | 14 | 90 | 17.7 | 19.3 | 0.00 | 3.05 | 2.74 | 95 | 1011.9 |
| 20260506204839 | 14 | 90 | 17.7 | 19.3 | 0.00 | 3.05 | 2.74 | 96 | 1011.9 |
| 20260506204340 | 14 | 68 | 17.7 | 20.9 | 0.00 | 3.10 | 2.74 | 97 | 1012.0 |
| 20260506204140 | 14 | 90 | 17.7 | 19.3 | 0.00 | 3.10 | 2.74 | 98 | 1011.9 |
| 20260506204040 | 14 | 90 | 17.7 | 22.5 | 0.00 | 3.10 | 2.74 | 97 | 1011.8 |
| 20260506203840 | 14 | 112 | 14.5 | 17.7 | 0.00 | 3.10 | 2.74 | 98 | 1011.9 |
| 20260506203739 | 14 | 90 | 14.5 | 17.7 | 0.00 | 3.10 | 2.74 | 98 | 1011.8 |
| 20260506203539 | 14 | 90 | 14.5 | 19.3 | 0.00 | 3.10 | 2.74 | 98 | 1011.8 |
| 20260506203439 | 14 | 90 | 16.1 | 17.7 | 0.00 | 3.10 | 2.74 | 98 | 1011.4 |
| 20260506203240 | 14 | 90 | 17.7 | 20.9 | 0.00 | 3.10 | 2.74 | 98 | 1011.5 |
| 20260506203140 | 14 | 90 | 14.5 | 17.7 | 0.00 | 3.10 | 2.74 | 98 | 1011.8 |
| 20260506202640 | 13 | 90 | 17.7 | 20.9 | 0.00 | 3.10 | 2.74 | 99 | 1011.6 |
| 20260506202440 | 13 | 90 | 17.7 | 22.5 | 0.00 | 3.10 | 2.74 | 99 | 1011.6 |
| 20260506202340 | 13 | 90 | 16.1 | 20.9 | 0.00 | 3.10 | 2.74 | 99 | 1011.8 |
| 20260506202240 | 14 | 90 | 16.1 | 19.3 | 0.00 | 3.10 | 2.74 | 99 | 1011.6 |
| 20260506202139 | 14 | 90 | 17.7 | 20.9 | 0.00 | 3.10 | 2.74 | 98 | 1011.6 |
| 20260506201940 | 14 | 90 | 16.1 | 19.3 | 0.00 | 3.10 | 2.74 | 98 | 1011.7 |
| 20260506201739 | 14 | 90 | 17.7 | 22.5 | 0.00 | 3.10 | 2.74 | 98 | 1011.7 |
| 20260506201439 | 14 | 90 | 16.1 | 22.5 | 0.00 | 3.10 | 2.74 | 98 | 1011.5 |
| 20260506201340 | 14 | 90 | 16.1 | 17.7 | 0.00 | 3.10 | 2.74 | 98 | 1011.6 |
| 20260506201239 | 14 | 90 | 17.7 | 19.3 | 0.00 | 3.10 | 2.74 | 98 | 1011.5 |
| 20260506201139 | 14 | 90 | 19.3 | 25.7 | 0.00 | 3.10 | 2.74 | 97 | 1011.5 |
| 20260506200940 | 14 | 90 | 16.1 | 19.3 | 0.00 | 3.10 | 2.74 | 98 | 1011.5 |
| 20260506200640 | 14 | 90 | 16.1 | 19.3 | 0.00 | 3.10 | 2.74 | 98 | 1011.4 |
| 20260506200539 | 14 | 90 | 16.1 | 19.3 | 0.00 | 3.10 | 2.74 | 98 | 1011.5 |
| 20260506200440 | 13 | 90 | 16.1 | 17.7 | 0.00 | 3.10 | 2.74 | 98 | 1011.5 |
| 20260506200340 | 14 | 90 | 14.5 | 17.7 | 0.00 | 3.10 | 2.74 | 99 | 1011.4 |
| 20260506200140 | 13 | 90 | 17.7 | 19.3 | 0.00 | 3.10 | 2.74 | 98 | 1011.6 |
| 20260506195839 | 14 | 90 | 14.5 | 16.1 | 0.00 | 3.10 | 2.74 | 98 | 1011.2 |
| 20260506195640 | 14 | 90 | 14.5 | 16.1 | 0.00 | 3.10 | 2.74 | 98 | 1011.1 |
| 20260506195540 | 14 | 90 | 14.5 | 19.3 | 0.00 | 3.10 | 2.74 | 97 | 1011.2 |
| 20260506195340 | 14 | 90 | 16.1 | 19.3 | 0.00 | 3.10 | 2.74 | 96 | 1011.1 |
| 20260506194840 | 14 | 90 | 16.1 | 19.3 | 0.00 | 3.10 | 2.74 | 96 | 1011.0 |
| 20260506194339 | 14 | 90 | 17.7 | 17.7 | 0.00 | 3.10 | 2.74 | 97 | 1010.9 |
| 20260506193940 | 14 | 90 | 16.1 | 17.7 | 0.00 | 3.10 | 2.74 | 96 | 1011.2 |
| 20260506193839 | 14 | 68 | 16.1 | 19.3 | 0.00 | 3.10 | 2.74 | 97 | 1010.9 |
| 20260506193340 | 14 | 90 | 16.1 | 17.7 | 0.00 | 3.10 | 2.74 | 96 | 1010.9 |
| 20260506193240 | 14 | 90 | 14.5 | 19.3 | 0.00 | 3.10 | 2.74 | 96 | 1011.1 |
| 20260506192939 | 14 | 68 | 14.5 | 19.3 | 0.00 | 3.10 | 2.74 | 96 | 1011.0 |
| 20260506192840 | 14 | 68 | 14.5 | 19.3 | 0.00 | 3.10 | 2.74 | 96 | 1011.0 |
| 20260506192539 | 14 | 90 | 16.1 | 19.3 | 0.00 | 3.10 | 2.74 | 96 | 1011.1 |
| 20260506191940 | 14 | 90 | 17.7 | 19.3 | 0.00 | 3.10 | 2.74 | 97 | 1011.0 |
| 20260506191740 | 14 | 90 | 17.7 | 19.3 | 0.00 | 3.10 | 2.74 | 96 | 1010.9 |
| 20260506191340 | 14 | 90 | 17.7 | 20.9 | 0.00 | 3.10 | 2.74 | 96 | 1010.9 |
| 20260506191039 | 14 | 90 | 17.7 | 19.3 | 0.00 | 3.10 | 2.74 | 96 | 1010.8 |
| 20260506190939 | 14 | 68 | 17.7 | 20.9 | 0.00 | 3.10 | 2.74 | 96 | 1011.0 |
| 20260506190740 | 14 | 90 | 17.7 | 19.3 | 0.00 | 3.10 | 2.74 | 96 | 1010.8 |
| 20260506190640 | 14 | 90 | 17.7 | 22.5 | 0.00 | 3.10 | 2.74 | 96 | 1010.8 |
| 20260506190539 | 14 | 68 | 17.7 | 22.5 | 0.00 | 3.10 | 2.74 | 95 | 1010.7 |
| 20260506190339 | 14 | 68 | 17.7 | 20.9 | 0.00 | 3.10 | 2.74 | 96 | 1010.9 |
| 20260506190240 | 14 | 90 | 17.7 | 19.3 | 0.00 | 3.10 | 2.74 | 95 | 1010.7 |
| 20260506190139 | 14 | 90 | 17.7 | 20.9 | 0.00 | 3.10 | 2.74 | 95 | 1010.7 |
| 20260506185840 | 14 | 90 | 17.7 | 20.9 | 0.00 | 3.10 | 2.74 | 97 | 1010.7 |
| 20260506185640 | 13 | 90 | 14.5 | 16.1 | 0.00 | 3.10 | 2.74 | 98 | 1010.7 |
| 20260506185139 | 13 | 90 | 16.1 | 17.7 | 0.13 | 3.10 | 2.74 | 98 | 1010.6 |
| 20260506185040 | 13 | 90 | 17.7 | 19.3 | 0.18 | 3.10 | 2.74 | 98 | 1010.8 |
| 20260506184839 | 13 | 90 | 17.7 | 20.9 | 0.43 | 3.10 | 2.74 | 97 | 1010.4 |
| 20260506184739 | 13 | 90 | 16.1 | 19.3 | 0.46 | 3.10 | 2.74 | 98 | 1010.7 |
| 20260506184540 | 14 | 112 | 17.7 | 20.9 | 0.61 | 3.10 | 2.74 | 97 | 1010.4 |
| 20260506184440 | 14 | 90 | 17.7 | 19.3 | 0.69 | 3.10 | 2.74 | 98 | 1010.5 |
| 20260506184240 | 13 | 90 | 14.5 | 17.7 | 0.79 | 3.10 | 2.74 | 98 | 1010.4 |
| 20260506184139 | 13 | 90 | 14.5 | 17.7 | 0.89 | 3.10 | 2.74 | 97 | 1010.5 |
| 20260506184039 | 13 | 90 | 14.5 | 19.3 | 0.94 | 3.10 | 2.74 | 97 | 1010.4 |
| 20260506183540 | 13 | 90 | 17.7 | 20.9 | 1.30 | 3.10 | 2.74 | 98 | 1010.5 |
| 20260506183239 | 13 | 68 | 16.1 | 19.3 | 1.50 | 3.10 | 2.74 | 98 | 1010.5 |
| 20260506183039 | 13 | 68 | 14.5 | 17.7 | 1.55 | 3.10 | 2.74 | 99 | 1010.5 |
| 20260506182840 | 13 | 68 | 14.5 | 17.7 | 1.70 | 3.10 | 2.74 | 99 | 1010.5 |
| 20260506182439 | 13 | 90 | 17.7 | 19.3 | 1.70 | 3.10 | 2.74 | 99 | 1010.5 |
| 20260506182339 | 13 | 90 | 17.7 | 19.3 | 1.70 | 3.10 | 2.74 | 99 | 1010.5 |
| 20260506182239 | 13 | 68 | 16.1 | 17.7 | 1.70 | 3.10 | 2.74 | 99 | 1010.5 |